Time,TemperatureF,DewpointF,PressureIn,WindDirection,WindDirectionDegrees,WindSpeedMPH,WindSpeedGustMPH,Humidity,HourlyPrecipIn,Conditions,Clouds,dailyrainin,SoftwareType,DateUTC
2013-01-08 00:02:00,25.4,21.0,30.29,South,180,6.0,-999.0,83,0.00,,,0.00,Wunderground v.1.15,2013-01-08 05:02:00,
2013-01-08 00:03:00,25.4,21.0,30.29,South,180,3.0,-999.0,83,0.00,,,0.00,Wunderground v.1.15,2013-01-08 05:03:00,
2013-01-08 00:05:00,25.4,21.0,30.29,South,188,2.0,4.0,83,0.00,,,0.00,Wunderground v.1.15,2013-01-08 05:05:00,
2013-01-08 00:07:00,25.3,20.9,30.29,South,180,3.0,-999.0,83,0.00,,,0.00,Wunderground v.1.15,2013-01-08 05:07:00,
2013-01-08 00:08:00,25.3,20.9,30.29,South,180,4.0,-999.0,83,0.00,,,0.00,Wunderground v.1.15,2013-01-08 05:08:00,
2013-01-08 00:10:00,25.4,21.0,30.29,South,176,2.0,4.0,83,0.00,,,0.00,Wunderground v.1.15,2013-01-08 05:10:00,
2013-01-08 00:12:00,25.3,20.9,30.29,South,180,7.0,-999.0,83,0.00,,,0.00,Wunderground v.1.15,2013-01-08 05:12:00,
2013-01-08 00:13:00,25.4,21.0,30.29,SSW,203,7.0,-999.0,83,0.00,,,0.00,Wunderground v.1.15,2013-01-08 05:13:00,
2013-01-08 00:15:00,25.3,20.9,30.29,South,183,3.0,4.0,83,0.00,,,0.00,Wunderground v.1.15,2013-01-08 05:15:00,
2013-01-08 00:17:00,25.5,21.1,30.29,South,180,2.0,-999.0,83,0.00,,,0.00,Wunderground v.1.15,2013-01-08 05:17:00,
2013-01-08 00:18:00,25.5,21.1,30.29,SSE,158,5.0,-999.0,83,0.00,,,0.00,Wunderground v.1.15,2013-01-08 05:18:00,
2013-01-08 00:22:00,25.6,20.9,30.29,SSE,158,4.0,-999.0,82,0.00,,,0.00,Wunderground v.1.15,2013-01-08 05:22:00,
2013-01-08 00:23:00,25.6,20.9,30.29,South,180,4.0,-999.0,82,0.00,,,0.00,Wunderground v.1.15,2013-01-08 05:23:00,
2013-01-08 00:25:00,25.6,21.2,30.29,SSE,164,5.0,5.0,83,0.00,,,0.00,Wunderground v.1.15,2013-01-08 05:25:00,
2013-01-08 00:27:00,25.6,21.7,30.29,SSW,203,7.0,-999.0,85,0.00,,,0.00,Wunderground v.1.15,2013-01-08 05:27:00,
2013-01-08 00:28:00,25.6,21.7,30.29,SSW,203,4.0,-999.0,85,0.00,,,0.00,Wunderground v.1.15,2013-01-08 05:28:00,
2013-01-08 00:30:00,25.6,20.9,30.29,SSE,154,4.0,5.0,82,0.00,,,0.00,Wunderground v.1.15,2013-01-08 05:30:00,
2013-01-08 00:32:00,25.8,21.9,30.29,South,180,6.0,-999.0,85,0.00,,,0.00,Wunderground v.1.15,2013-01-08 05:32:00,
2013-01-08 00:33:00,25.8,21.9,30.29,South,180,3.0,-999.0,85,0.00,,,0.00,Wunderground v.1.15,2013-01-08 05:33:00,
2013-01-08 00:35:00,25.6,21.7,30.29,South,180,4.0,9.0,85,0.00,,,0.00,Wunderground v.1.15,2013-01-08 05:35:00,
2013-01-08 00:37:00,-999.9,-99.9,30.29,N/A,-737280,0.0,-999.0,83,0.00,,,0.00,Wunderground v.1.15,2013-01-08 05:37:00,
2013-01-08 00:38:00,-999.9,-99.9,30.29,N/A,-737280,0.0,-999.0,83,0.00,,,0.00,Wunderground v.1.15,2013-01-08 05:38:00,
2013-01-08 00:40:00,25.8,21.9,30.29,South,169,4.0,9.0,85,0.00,,,0.00,Wunderground v.1.15,2013-01-08 05:40:00,
2013-01-08 00:42:00,25.9,21.4,30.29,SSE,158,1.0,-999.0,83,0.00,,,0.00,Wunderground v.1.15,2013-01-08 05:42:00,
2013-01-08 00:43:00,25.9,21.4,30.29,SSE,158,1.0,-999.0,83,0.00,,,0.00,Wunderground v.1.15,2013-01-08 05:43:00,
2013-01-08 00:47:00,25.6,20.9,30.29,SSE,158,2.0,-999.0,82,0.00,,,0.00,Wunderground v.1.15,2013-01-08 05:47:00,
2013-01-08 00:48:00,25.6,20.9,30.29,SSE,158,1.0,-999.0,82,0.00,,,0.00,Wunderground v.1.15,2013-01-08 05:48:00,
2013-01-08 00:50:00,25.9,21.4,30.29,SSE,165,2.0,5.0,83,0.00,,,0.00,Wunderground v.1.15,2013-01-08 05:50:00,
2013-01-08 00:52:00,25.5,21.3,30.29,SSE,158,0.0,-999.0,84,0.00,,,0.00,Wunderground v.1.15,2013-01-08 05:52:00,
2013-01-08 00:53:00,25.4,21.2,30.29,N/A,-737280,0.0,-999.0,84,0.00,,,0.00,Wunderground v.1.15,2013-01-08 05:53:00,
2013-01-08 00:55:00,25.6,21.2,30.29,SSE,165,1.0,3.0,83,0.00,,,0.00,Wunderground v.1.15,2013-01-08 05:55:00,
2013-01-08 00:57:00,25.3,20.6,30.29,N/A,-737280,0.0,-999.0,82,0.00,,,0.00,Wunderground v.1.15,2013-01-08 05:57:00,
2013-01-08 00:58:00,25.2,22.4,30.29,N/A,-737280,0.0,-999.0,89,0.00,,,0.00,Wunderground v.1.15,2013-01-08 05:58:00,
2013-01-08 01:00:00,25.4,21.0,30.29,SSE,165,1.0,1.0,83,0.00,,,0.00,Wunderground v.1.15,2013-01-08 06:00:00,
2013-01-08 01:02:00,24.9,20.2,30.29,N/A,-737280,0.0,-999.0,82,0.00,,,0.00,Wunderground v.1.15,2013-01-08 06:02:00,
2013-01-08 01:03:00,24.8,20.1,30.29,N/A,-737280,0.0,-999.0,82,0.00,,,0.00,Wunderground v.1.15,2013-01-08 06:03:00,
2013-01-08 01:05:00,25.2,22.4,30.28,SSE,165,1.0,3.0,89,0.00,,,0.00,Wunderground v.1.15,2013-01-08 06:05:00,
2013-01-08 01:07:00,24.4,19.7,30.29,N/A,-737280,0.0,-999.0,82,0.00,,,0.00,Wunderground v.1.15,2013-01-08 06:07:00,
2013-01-08 01:08:00,24.3,19.6,30.28,N/A,-737280,0.0,-999.0,82,0.00,,,0.00,Wunderground v.1.15,2013-01-08 06:08:00,
2013-01-08 01:10:00,24.8,20.1,30.29,SSE,166,0.0,3.0,82,0.00,,,0.00,Wunderground v.1.15,2013-01-08 06:10:00,
2013-01-08 01:12:00,23.7,19.0,30.28,N/A,-737280,0.0,-999.0,82,0.00,,,0.00,Wunderground v.1.15,2013-01-08 06:12:00,
2013-01-08 01:13:00,23.6,18.9,30.29,N/A,-737280,0.0,-999.0,82,0.00,,,0.00,Wunderground v.1.15,2013-01-08 06:13:00,
2013-01-08 01:17:00,23.3,18.9,30.28,N/A,-737280,0.0,-999.0,83,0.00,,,0.00,Wunderground v.1.15,2013-01-08 06:17:00,
2013-01-08 01:18:00,23.2,18.8,30.28,SSE,158,1.0,-999.0,83,0.00,,,0.00,Wunderground v.1.15,2013-01-08 06:18:00,
2013-01-08 01:20:00,23.6,18.9,30.29,SSE,165,0.0,3.0,82,0.00,,,0.00,Wunderground v.1.15,2013-01-08 06:20:00,
2013-01-08 01:22:00,22.8,18.7,30.28,N/A,-737280,0.0,-999.0,84,0.00,,,0.00,Wunderground v.1.15,2013-01-08 06:22:00,
2013-01-08 01:23:00,22.6,18.5,30.28,N/A,-737280,0.0,-999.0,84,0.00,,,0.00,Wunderground v.1.15,2013-01-08 06:23:00,
2013-01-08 01:25:00,23.2,18.8,30.28,SSE,165,0.0,3.0,83,0.00,,,0.00,Wunderground v.1.15,2013-01-08 06:25:00,
2013-01-08 01:27:00,22.3,18.2,30.29,SSE,158,1.0,-999.0,84,0.00,,,0.00,Wunderground v.1.15,2013-01-08 06:27:00,
2013-01-08 01:28:00,22.2,18.1,30.29,SSE,158,1.0,-999.0,84,0.00,,,0.00,Wunderground v.1.15,2013-01-08 06:28:00,
2013-01-08 01:30:00,22.6,18.5,30.28,SSE,165,0.0,3.0,84,0.00,,,0.00,Wunderground v.1.15,2013-01-08 06:30:00,
2013-01-08 01:32:00,21.9,18.4,30.29,SE,135,0.0,-999.0,86,0.00,,,0.00,Wunderground v.1.15,2013-01-08 06:32:00,
2013-01-08 01:33:00,22.0,18.7,30.29,SE,135,1.0,-999.0,87,0.00,,,0.00,Wunderground v.1.15,2013-01-08 06:33:00,
2013-01-08 01:37:00,22.4,19.6,30.29,SSE,158,3.0,-999.0,89,0.00,,,0.00,Wunderground v.1.15,2013-01-08 06:37:00,
2013-01-08 01:38:00,22.6,19.8,30.29,SSE,158,2.0,-999.0,89,0.00,,,0.00,Wunderground v.1.15,2013-01-08 06:38:00,
2013-01-08 01:42:00,23.3,20.3,30.29,SE,135,2.0,-999.0,88,0.00,,,0.00,Wunderground v.1.15,2013-01-08 06:42:00,
2013-01-08 01:43:00,23.6,20.6,30.28,SSE,158,5.0,-999.0,88,0.00,,,0.00,Wunderground v.1.15,2013-01-08 06:43:00,
2013-01-08 01:47:00,24.4,20.8,30.28,SSE,158,1.0,-999.0,86,0.00,,,0.00,Wunderground v.1.15,2013-01-08 06:47:00,
2013-01-08 01:48:00,24.5,20.6,30.28,SE,135,3.0,-999.0,85,0.00,,,0.00,Wunderground v.1.15,2013-01-08 06:48:00,
2013-01-08 01:52:00,25.1,21.2,30.28,SSE,158,2.0,-999.0,85,0.00,,,0.00,Wunderground v.1.15,2013-01-08 06:52:00,
2013-01-08 01:53:00,25.2,21.0,30.28,SSE,158,2.0,-999.0,84,0.00,,,0.00,Wunderground v.1.15,2013-01-08 06:53:00,
2013-01-08 01:57:00,25.6,21.2,30.28,SSE,158,2.0,-999.0,83,0.00,,,0.00,Wunderground v.1.15,2013-01-08 06:57:00,
2013-01-08 01:58:00,25.6,21.2,30.28,SE,135,4.0,-999.0,83,0.00,,,0.00,Wunderground v.1.15,2013-01-08 06:58:00,
2013-01-08 02:02:00,26.0,21.5,30.28,SE,135,3.0,-999.0,83,0.00,,,0.00,Wunderground v.1.15,2013-01-08 07:02:00,
2013-01-08 02:03:00,26.1,21.6,30.28,SE,135,2.0,-999.0,83,0.00,,,0.00,Wunderground v.1.15,2013-01-08 07:03:00,
2013-01-08 02:07:00,26.3,21.3,30.28,SE,135,6.0,-999.0,81,0.00,,,0.00,Wunderground v.1.15,2013-01-08 07:07:00,
2013-01-08 02:08:00,26.4,21.4,30.28,SSE,158,5.0,-999.0,81,0.00,,,0.00,Wunderground v.1.15,2013-01-08 07:08:00,
2013-01-08 02:12:00,26.7,21.9,30.28,SSE,158,4.0,-999.0,82,0.00,,,0.00,Wunderground v.1.15,2013-01-08 07:12:00,
2013-01-08 02:13:00,26.8,21.8,30.28,SSE,158,6.0,-999.0,81,0.00,,,0.00,Wunderground v.1.15,2013-01-08 07:13:00,
2013-01-08 02:17:00,27.1,21.7,30.28,SSE,158,5.0,-999.0,80,0.00,,,0.00,Wunderground v.1.15,2013-01-08 07:17:00,
2013-01-08 02:18:00,27.2,22.1,30.28,South,180,5.0,-999.0,81,0.00,,,0.00,Wunderground v.1.15,2013-01-08 07:18:00,
2013-01-08 02:22:00,27.4,21.7,30.28,SSE,158,4.0,-999.0,79,0.00,,,0.00,Wunderground v.1.15,2013-01-08 07:22:00,
2013-01-08 02:23:00,27.4,21.7,30.28,SSE,158,3.0,-999.0,79,0.00,,,0.00,Wunderground v.1.15,2013-01-08 07:23:00,
2013-01-08 02:27:00,27.5,21.8,30.27,SSE,158,6.0,-999.0,79,0.00,,,0.00,Wunderground v.1.15,2013-01-08 07:27:00,
2013-01-08 02:28:00,27.5,21.8,30.28,SSE,158,4.0,-999.0,79,0.00,,,0.00,Wunderground v.1.15,2013-01-08 07:28:00,
2013-01-08 02:32:00,27.5,21.8,30.27,SSE,158,8.0,-999.0,79,0.00,,,0.00,Wunderground v.1.15,2013-01-08 07:32:00,
2013-01-08 02:33:00,27.6,21.9,30.27,South,180,7.0,-999.0,79,0.00,,,0.00,Wunderground v.1.15,2013-01-08 07:33:00,
2013-01-08 02:37:00,27.6,21.9,30.27,SSE,158,9.0,-999.0,79,0.00,,,0.00,Wunderground v.1.15,2013-01-08 07:37:00,
2013-01-08 02:38:00,27.6,21.9,30.27,SSE,158,7.0,-999.0,79,0.00,,,0.00,Wunderground v.1.15,2013-01-08 07:38:00,
2013-01-08 02:42:00,27.8,22.4,30.27,SSE,158,5.0,-999.0,80,0.00,,,0.00,Wunderground v.1.15,2013-01-08 07:42:00,
2013-01-08 02:43:00,27.8,22.4,30.27,SSE,158,6.0,-999.0,80,0.00,,,0.00,Wunderground v.1.15,2013-01-08 07:43:00,
2013-01-08 02:47:00,27.9,22.5,30.27,SSE,158,4.0,-999.0,80,0.00,,,0.00,Wunderground v.1.15,2013-01-08 07:47:00,
2013-01-08 02:48:00,27.9,22.5,30.27,South,180,6.0,-999.0,80,0.00,,,0.00,Wunderground v.1.15,2013-01-08 07:48:00,
2013-01-08 02:52:00,28.0,22.3,30.27,South,180,6.0,-999.0,79,0.00,,,0.00,Wunderground v.1.15,2013-01-08 07:52:00,
2013-01-08 02:53:00,28.0,22.3,30.27,SSE,158,6.0,-999.0,79,0.00,,,0.00,Wunderground v.1.15,2013-01-08 07:53:00,
2013-01-08 02:57:00,28.1,22.4,30.27,South,180,6.0,-999.0,79,0.00,,,0.00,Wunderground v.1.15,2013-01-08 07:57:00,
2013-01-08 02:58:00,28.1,22.7,30.27,SSE,158,8.0,-999.0,80,0.00,,,0.00,Wunderground v.1.15,2013-01-08 07:58:00,
2013-01-08 03:02:00,28.2,22.5,30.26,SSE,158,7.0,-999.0,79,0.00,,,0.00,Wunderground v.1.15,2013-01-08 08:02:00,
2013-01-08 03:03:00,28.2,22.5,30.26,South,180,7.0,-999.0,79,0.00,,,0.00,Wunderground v.1.15,2013-01-08 08:03:00,
2013-01-08 03:07:00,28.3,22.9,30.26,SSE,158,5.0,-999.0,80,0.00,,,0.00,Wunderground v.1.15,2013-01-08 08:07:00,
2013-01-08 03:08:00,28.3,22.6,30.26,South,180,5.0,-999.0,79,0.00,,,0.00,Wunderground v.1.15,2013-01-08 08:08:00,
2013-01-08 03:12:00,28.4,22.7,30.26,SSE,158,6.0,-999.0,79,0.00,,,0.00,Wunderground v.1.15,2013-01-08 08:12:00,
2013-01-08 03:13:00,28.4,22.7,30.26,SSE,158,5.0,-999.0,79,0.00,,,0.00,Wunderground v.1.15,2013-01-08 08:13:00,
2013-01-08 03:17:00,28.4,22.7,30.25,SSE,158,9.0,-999.0,79,0.00,,,0.00,Wunderground v.1.15,2013-01-08 08:17:00,
2013-01-08 03:18:00,28.5,22.8,30.26,South,180,7.0,-999.0,79,0.00,,,0.00,Wunderground v.1.15,2013-01-08 08:18:00,
2013-01-08 03:22:00,28.6,22.9,30.26,SSE,158,7.0,-999.0,79,0.00,,,0.00,Wunderground v.1.15,2013-01-08 08:22:00,
2013-01-08 03:23:00,28.7,23.0,30.25,SSE,158,6.0,-999.0,79,0.00,,,0.00,Wunderground v.1.15,2013-01-08 08:23:00,
2013-01-08 03:27:00,28.7,23.0,30.26,SSE,158,5.0,-999.0,79,0.00,,,0.00,Wunderground v.1.15,2013-01-08 08:27:00,
2013-01-08 03:28:00,28.6,22.9,30.26,SSE,158,4.0,-999.0,79,0.00,,,0.00,Wunderground v.1.15,2013-01-08 08:28:00,
2013-01-08 03:32:00,28.6,22.9,30.26,SE,135,5.0,-999.0,79,0.00,,,0.00,Wunderground v.1.15,2013-01-08 08:32:00,
2013-01-08 03:33:00,28.6,22.9,30.26,SSE,158,6.0,-999.0,79,0.00,,,0.00,Wunderground v.1.15,2013-01-08 08:33:00,
2013-01-08 03:37:00,28.6,22.9,30.26,SSE,158,3.0,-999.0,79,0.00,,,0.00,Wunderground v.1.15,2013-01-08 08:37:00,
2013-01-08 03:38:00,28.5,22.8,30.25,South,180,8.0,-999.0,79,0.00,,,0.00,Wunderground v.1.15,2013-01-08 08:38:00,
2013-01-08 03:42:00,28.5,22.8,30.26,South,180,6.0,-999.0,79,0.00,,,0.00,Wunderground v.1.15,2013-01-08 08:42:00,
2013-01-08 03:43:00,28.5,22.8,30.26,SSE,158,5.0,-999.0,79,0.00,,,0.00,Wunderground v.1.15,2013-01-08 08:43:00,
2013-01-08 03:47:00,28.5,22.8,30.26,South,180,9.0,-999.0,79,0.00,,,0.00,Wunderground v.1.15,2013-01-08 08:47:00,
2013-01-08 03:48:00,28.5,22.8,30.25,SSE,158,7.0,-999.0,79,0.00,,,0.00,Wunderground v.1.15,2013-01-08 08:48:00,
2013-01-08 03:52:00,28.5,23.1,30.25,SSE,158,6.0,-999.0,80,0.00,,,0.00,Wunderground v.1.15,2013-01-08 08:52:00,
2013-01-08 03:53:00,28.5,23.1,30.25,SSE,158,6.0,-999.0,80,0.00,,,0.00,Wunderground v.1.15,2013-01-08 08:53:00,
2013-01-08 03:57:00,28.5,23.1,30.25,SSE,158,7.0,-999.0,80,0.00,,,0.00,Wunderground v.1.15,2013-01-08 08:57:00,
2013-01-08 03:58:00,28.5,23.4,30.25,SSE,158,8.0,-999.0,81,0.00,,,0.00,Wunderground v.1.15,2013-01-08 08:58:00,
2013-01-08 04:02:00,28.5,23.1,30.25,South,180,5.0,-999.0,80,0.00,,,0.00,Wunderground v.1.15,2013-01-08 09:02:00,
2013-01-08 04:03:00,28.5,23.1,30.25,SSE,158,6.0,-999.0,80,0.00,,,0.00,Wunderground v.1.15,2013-01-08 09:03:00,
2013-01-08 04:07:00,28.3,23.2,30.25,SSE,158,6.0,-999.0,81,0.00,,,0.00,Wunderground v.1.15,2013-01-08 09:07:00,
2013-01-08 04:08:00,28.3,23.5,30.25,South,180,3.0,-999.0,82,0.00,,,0.00,Wunderground v.1.15,2013-01-08 09:08:00,
2013-01-08 04:12:00,28.2,23.1,30.25,SSE,158,2.0,-999.0,81,0.00,,,0.00,Wunderground v.1.15,2013-01-08 09:12:00,
2013-01-08 04:13:00,28.2,22.8,30.25,SSE,158,7.0,-999.0,80,0.00,,,0.00,Wunderground v.1.15,2013-01-08 09:13:00,
2013-01-08 04:17:00,28.2,23.4,30.25,SSE,158,2.0,-999.0,82,0.00,,,0.00,Wunderground v.1.15,2013-01-08 09:17:00,
2013-01-08 04:18:00,28.1,23.0,30.25,SE,135,6.0,-999.0,81,0.00,,,0.00,Wunderground v.1.15,2013-01-08 09:18:00,
2013-01-08 04:22:00,28.1,23.0,30.25,SSE,158,5.0,-999.0,81,0.00,,,0.00,Wunderground v.1.15,2013-01-08 09:22:00,
2013-01-08 04:23:00,28.1,23.0,30.25,SSE,158,6.0,-999.0,81,0.00,,,0.00,Wunderground v.1.15,2013-01-08 09:23:00,
2013-01-08 04:27:00,28.1,23.3,30.25,South,180,2.0,-999.0,82,0.00,,,0.00,Wunderground v.1.15,2013-01-08 09:27:00,
2013-01-08 04:28:00,28.0,23.2,30.25,SSE,158,5.0,-999.0,82,0.00,,,0.00,Wunderground v.1.15,2013-01-08 09:28:00,
2013-01-08 04:32:00,28.0,22.9,30.25,SSE,158,5.0,-999.0,81,0.00,,,0.00,Wunderground v.1.15,2013-01-08 09:32:00,
2013-01-08 04:33:00,28.0,22.9,30.25,South,180,4.0,-999.0,81,0.00,,,0.00,Wunderground v.1.15,2013-01-08 09:33:00,
2013-01-08 04:37:00,28.0,22.9,30.25,South,180,7.0,-999.0,81,0.00,,,0.00,Wunderground v.1.15,2013-01-08 09:37:00,
2013-01-08 04:38:00,28.0,22.9,30.25,SSE,158,7.0,-999.0,81,0.00,,,0.00,Wunderground v.1.15,2013-01-08 09:38:00,
2013-01-08 04:42:00,28.0,22.9,30.26,South,180,5.0,-999.0,81,0.00,,,0.00,Wunderground v.1.15,2013-01-08 09:42:00,
2013-01-08 04:43:00,28.1,23.0,30.26,South,180,7.0,-999.0,81,0.00,,,0.00,Wunderground v.1.15,2013-01-08 09:43:00,
2013-01-08 04:47:00,28.1,23.3,30.26,South,180,6.0,-999.0,82,0.00,,,0.00,Wunderground v.1.15,2013-01-08 09:47:00,
2013-01-08 04:48:00,28.1,23.3,30.26,South,180,7.0,-999.0,82,0.00,,,0.00,Wunderground v.1.15,2013-01-08 09:48:00,
2013-01-08 04:52:00,28.1,23.3,30.26,SSE,158,4.0,-999.0,82,0.00,,,0.00,Wunderground v.1.15,2013-01-08 09:52:00,
2013-01-08 04:53:00,28.1,23.3,30.26,SSE,158,2.0,-999.0,82,0.00,,,0.00,Wunderground v.1.15,2013-01-08 09:53:00,
2013-01-08 04:57:00,28.0,23.2,30.26,South,180,6.0,-999.0,82,0.00,,,0.00,Wunderground v.1.15,2013-01-08 09:57:00,
2013-01-08 04:58:00,28.0,23.2,30.26,South,180,4.0,-999.0,82,0.00,,,0.00,Wunderground v.1.15,2013-01-08 09:58:00,
2013-01-08 05:02:00,27.9,23.1,30.26,South,180,4.0,-999.0,82,0.00,,,0.00,Wunderground v.1.15,2013-01-08 10:02:00,
2013-01-08 05:03:00,27.9,23.1,30.26,South,180,3.0,-999.0,82,0.00,,,0.00,Wunderground v.1.15,2013-01-08 10:03:00,
2013-01-08 05:07:00,27.8,23.0,30.26,SE,135,4.0,-999.0,82,0.00,,,0.00,Wunderground v.1.15,2013-01-08 10:07:00,
2013-01-08 05:08:00,27.7,22.9,30.26,SSE,158,3.0,-999.0,82,0.00,,,0.00,Wunderground v.1.15,2013-01-08 10:08:00,
2013-01-08 05:12:00,27.7,23.8,30.26,SSE,158,5.0,-999.0,85,0.00,,,0.00,Wunderground v.1.15,2013-01-08 10:12:00,
2013-01-08 05:13:00,27.7,23.8,30.26,SE,135,4.0,-999.0,85,0.00,,,0.00,Wunderground v.1.15,2013-01-08 10:13:00,
2013-01-08 05:17:00,27.7,23.5,30.26,SE,135,2.0,-999.0,84,0.00,,,0.00,Wunderground v.1.15,2013-01-08 10:17:00,
2013-01-08 05:18:00,27.6,23.1,30.26,SSE,158,7.0,-999.0,83,0.00,,,0.00,Wunderground v.1.15,2013-01-08 10:18:00,
2013-01-08 05:22:00,27.6,23.1,30.26,SSE,158,3.0,-999.0,83,0.00,,,0.00,Wunderground v.1.15,2013-01-08 10:22:00,
2013-01-08 05:23:00,27.5,23.0,30.26,SSE,158,2.0,-999.0,83,0.00,,,0.00,Wunderground v.1.15,2013-01-08 10:23:00,
2013-01-08 05:27:00,27.5,23.3,30.26,SSE,158,1.0,-999.0,84,0.00,,,0.00,Wunderground v.1.15,2013-01-08 10:27:00,
2013-01-08 05:28:00,27.4,23.2,30.27,South,180,1.0,-999.0,84,0.00,,,0.00,Wunderground v.1.15,2013-01-08 10:28:00,
2013-01-08 05:32:00,27.3,23.1,30.27,SSE,158,6.0,-999.0,84,0.00,,,0.00,Wunderground v.1.15,2013-01-08 10:32:00,
2013-01-08 05:33:00,27.3,23.1,30.27,SSE,158,5.0,-999.0,84,0.00,,,0.00,Wunderground v.1.15,2013-01-08 10:33:00,
2013-01-08 05:37:00,27.3,23.1,30.27,SSE,158,0.0,-999.0,84,0.00,,,0.00,Wunderground v.1.15,2013-01-08 10:37:00,
2013-01-08 05:38:00,27.3,23.1,30.27,SSE,158,5.0,-999.0,84,0.00,,,0.00,Wunderground v.1.15,2013-01-08 10:38:00,
2013-01-08 05:42:00,27.2,23.0,30.27,SSE,158,5.0,-999.0,84,0.00,,,0.00,Wunderground v.1.15,2013-01-08 10:42:00,
2013-01-08 05:43:00,27.3,23.4,30.27,SSE,158,1.0,-999.0,85,0.00,,,0.00,Wunderground v.1.15,2013-01-08 10:43:00,
2013-01-08 05:47:00,27.2,23.0,30.27,SE,135,4.0,-999.0,84,0.00,,,0.00,Wunderground v.1.15,2013-01-08 10:47:00,
2013-01-08 05:48:00,27.2,23.0,30.27,ESE,113,2.0,-999.0,84,0.00,,,0.00,Wunderground v.1.15,2013-01-08 10:48:00,
2013-01-08 05:52:00,27.1,22.9,30.27,South,180,5.0,-999.0,84,0.00,,,0.00,Wunderground v.1.15,2013-01-08 10:52:00,
2013-01-08 05:53:00,27.1,22.9,30.27,SE,135,4.0,-999.0,84,0.00,,,0.00,Wunderground v.1.15,2013-01-08 10:53:00,
2013-01-08 05:57:00,27.1,22.9,30.27,SSE,158,3.0,-999.0,84,0.00,,,0.00,Wunderground v.1.15,2013-01-08 10:57:00,
2013-01-08 05:58:00,27.1,22.9,30.27,SE,135,3.0,-999.0,84,0.00,,,0.00,Wunderground v.1.15,2013-01-08 10:58:00,
2013-01-08 06:02:00,27.0,22.8,30.27,SE,135,4.0,-999.0,84,0.00,,,0.00,Wunderground v.1.15,2013-01-08 11:02:00,
2013-01-08 06:03:00,27.0,22.8,30.28,SSE,158,6.0,-999.0,84,0.00,,,0.00,Wunderground v.1.15,2013-01-08 11:03:00,
2013-01-08 06:07:00,27.0,22.8,30.28,South,180,2.0,-999.0,84,0.00,,,0.00,Wunderground v.1.15,2013-01-08 11:07:00,
2013-01-08 06:08:00,27.0,22.8,30.28,SSE,158,5.0,-999.0,84,0.00,,,0.00,Wunderground v.1.15,2013-01-08 11:08:00,
2013-01-08 06:12:00,26.9,23.0,30.28,SSE,158,4.0,-999.0,85,0.00,,,0.00,Wunderground v.1.15,2013-01-08 11:12:00,
2013-01-08 06:13:00,27.0,23.1,30.28,SSE,158,3.0,-999.0,85,0.00,,,0.00,Wunderground v.1.15,2013-01-08 11:13:00,
2013-01-08 06:17:00,26.9,23.0,30.28,ESE,113,3.0,-999.0,85,0.00,,,0.00,Wunderground v.1.15,2013-01-08 11:17:00,
2013-01-08 06:18:00,26.9,23.0,30.28,SE,135,2.0,-999.0,85,0.00,,,0.00,Wunderground v.1.15,2013-01-08 11:18:00,
2013-01-08 06:22:00,27.0,23.6,30.28,SE,135,1.0,-999.0,87,0.00,,,0.00,Wunderground v.1.15,2013-01-08 11:22:00,
2013-01-08 06:23:00,27.0,23.4,30.29,SE,135,2.0,-999.0,86,0.00,,,0.00,Wunderground v.1.15,2013-01-08 11:23:00,
2013-01-08 06:27:00,27.0,23.6,30.29,SE,135,3.0,-999.0,87,0.00,,,0.00,Wunderground v.1.15,2013-01-08 11:27:00,
2013-01-08 06:28:00,27.0,23.4,30.29,South,180,1.0,-999.0,86,0.00,,,0.00,Wunderground v.1.15,2013-01-08 11:28:00,
2013-01-08 06:32:00,27.0,23.6,30.29,SE,135,5.0,-999.0,87,0.00,,,0.00,Wunderground v.1.15,2013-01-08 11:32:00,
2013-01-08 06:33:00,27.0,23.6,30.29,SSE,158,4.0,-999.0,87,0.00,,,0.00,Wunderground v.1.15,2013-01-08 11:33:00,
2013-01-08 06:37:00,27.1,23.5,30.29,SSE,158,3.0,-999.0,86,0.00,,,0.00,Wunderground v.1.15,2013-01-08 11:37:00,
2013-01-08 06:38:00,27.0,23.6,30.29,South,180,3.0,-999.0,87,0.00,,,0.00,Wunderground v.1.15,2013-01-08 11:38:00,
2013-01-08 06:42:00,27.0,23.1,30.29,SSE,158,3.0,-999.0,85,0.00,,,0.00,Wunderground v.1.15,2013-01-08 11:42:00,
2013-01-08 06:43:00,27.0,23.1,30.29,SSE,158,4.0,-999.0,85,0.00,,,0.00,Wunderground v.1.15,2013-01-08 11:43:00,
2013-01-08 06:47:00,27.1,23.5,30.29,SSE,158,3.0,-999.0,86,0.00,,,0.00,Wunderground v.1.15,2013-01-08 11:47:00,
2013-01-08 06:48:00,27.1,23.5,30.29,South,180,3.0,-999.0,86,0.00,,,0.00,Wunderground v.1.15,2013-01-08 11:48:00,
2013-01-08 06:52:00,27.0,23.1,30.29,SSE,158,3.0,-999.0,85,0.00,,,0.00,Wunderground v.1.15,2013-01-08 11:52:00,
2013-01-08 06:53:00,27.0,23.1,30.29,South,180,4.0,-999.0,85,0.00,,,0.00,Wunderground v.1.15,2013-01-08 11:53:00,
2013-01-08 06:57:00,27.0,23.1,30.29,SSE,158,2.0,-999.0,85,0.00,,,0.00,Wunderground v.1.15,2013-01-08 11:57:00,
2013-01-08 06:58:00,27.0,23.1,30.29,South,180,3.0,-999.0,85,0.00,,,0.00,Wunderground v.1.15,2013-01-08 11:58:00,
2013-01-08 07:02:00,26.9,23.0,30.29,SE,135,1.0,-999.0,85,0.00,,,0.00,Wunderground v.1.15,2013-01-08 12:02:00,
2013-01-08 07:03:00,26.9,23.0,30.29,SSE,158,1.0,-999.0,85,0.00,,,0.00,Wunderground v.1.15,2013-01-08 12:03:00,
2013-01-08 07:07:00,26.9,23.0,30.30,SE,135,4.0,-999.0,85,0.00,,,0.00,Wunderground v.1.15,2013-01-08 12:07:00,
2013-01-08 07:08:00,26.9,23.0,30.30,SE,135,1.0,-999.0,85,0.00,,,0.00,Wunderground v.1.15,2013-01-08 12:08:00,
2013-01-08 07:12:00,26.9,23.0,30.30,SSE,158,0.0,-999.0,85,0.00,,,0.00,Wunderground v.1.15,2013-01-08 12:12:00,
2013-01-08 07:13:00,26.9,23.0,30.30,SE,135,3.0,-999.0,85,0.00,,,0.00,Wunderground v.1.15,2013-01-08 12:13:00,
2013-01-08 07:17:00,26.9,23.0,30.30,SE,135,4.0,-999.0,85,0.00,,,0.00,Wunderground v.1.15,2013-01-08 12:17:00,
2013-01-08 07:18:00,26.9,23.0,30.30,South,180,2.0,-999.0,85,0.00,,,0.00,Wunderground v.1.15,2013-01-08 12:18:00,
2013-01-08 07:22:00,26.9,23.0,30.30,SE,135,2.0,-999.0,85,0.00,,,0.00,Wunderground v.1.15,2013-01-08 12:22:00,
2013-01-08 07:23:00,26.9,23.0,30.30,SE,135,4.0,-999.0,85,0.00,,,0.00,Wunderground v.1.15,2013-01-08 12:23:00,
2013-01-08 07:27:00,26.9,23.0,30.30,SE,135,2.0,-999.0,85,0.00,,,0.00,Wunderground v.1.15,2013-01-08 12:27:00,
2013-01-08 07:28:00,26.9,23.0,30.30,SE,135,2.0,-999.0,85,0.00,,,0.00,Wunderground v.1.15,2013-01-08 12:28:00,
2013-01-08 07:32:00,26.9,23.3,30.31,SE,135,1.0,-999.0,86,0.00,,,0.00,Wunderground v.1.15,2013-01-08 12:32:00,
2013-01-08 07:33:00,26.9,23.3,30.31,SE,135,0.0,-999.0,86,0.00,,,0.00,Wunderground v.1.15,2013-01-08 12:33:00,
2013-01-08 07:37:00,26.8,23.2,30.30,N/A,-737280,0.0,-999.0,86,0.00,,,0.00,Wunderground v.1.15,2013-01-08 12:37:00,
2013-01-08 07:38:00,26.8,22.9,30.31,SE,135,2.0,-999.0,85,0.00,,,0.00,Wunderground v.1.15,2013-01-08 12:38:00,
2013-01-08 07:42:00,26.7,23.1,30.31,SE,135,1.0,-999.0,86,0.00,,,0.00,Wunderground v.1.15,2013-01-08 12:42:00,
2013-01-08 07:43:00,26.7,23.1,30.31,SSE,158,0.0,-999.0,86,0.00,,,0.00,Wunderground v.1.15,2013-01-08 12:43:00,
2013-01-08 07:47:00,26.7,23.4,30.31,SSE,158,0.0,-999.0,87,0.00,,,0.00,Wunderground v.1.15,2013-01-08 12:47:00,
2013-01-08 07:48:00,26.8,23.4,30.31,N/A,-737280,0.0,-999.0,87,0.00,,,0.00,Wunderground v.1.15,2013-01-08 12:48:00,
2013-01-08 07:52:00,26.8,23.4,30.31,SE,135,2.0,-999.0,87,0.00,,,0.00,Wunderground v.1.15,2013-01-08 12:52:00,
2013-01-08 07:53:00,26.7,23.4,30.31,SE,135,1.0,-999.0,87,0.00,,,0.00,Wunderground v.1.15,2013-01-08 12:53:00,
2013-01-08 07:57:00,26.8,23.4,30.32,SSE,158,1.0,-999.0,87,0.00,,,0.00,Wunderground v.1.15,2013-01-08 12:57:00,
2013-01-08 07:58:00,26.8,23.4,30.32,SE,135,1.0,-999.0,87,0.00,,,0.00,Wunderground v.1.15,2013-01-08 12:58:00,
2013-01-08 08:02:00,26.9,23.5,30.32,SSE,158,1.0,-999.0,87,0.00,,,0.00,Wunderground v.1.15,2013-01-08 13:02:00,
2013-01-08 08:03:00,26.9,23.5,30.32,SSE,158,3.0,-999.0,87,0.00,,,0.00,Wunderground v.1.15,2013-01-08 13:03:00,
2013-01-08 08:07:00,26.9,23.3,30.32,SSE,158,2.0,-999.0,86,0.00,,,0.00,Wunderground v.1.15,2013-01-08 13:07:00,
2013-01-08 08:08:00,27.0,23.4,30.32,SSE,158,3.0,-999.0,86,0.00,,,0.00,Wunderground v.1.15,2013-01-08 13:08:00,
2013-01-08 08:12:00,27.1,23.5,30.32,SE,135,3.0,-999.0,86,0.00,,,0.00,Wunderground v.1.15,2013-01-08 13:12:00,
2013-01-08 08:13:00,27.1,23.5,30.31,SE,135,2.0,-999.0,86,0.00,,,0.00,Wunderground v.1.15,2013-01-08 13:13:00,
2013-01-08 08:17:00,27.2,23.3,30.31,SE,135,1.0,-999.0,85,0.00,,,0.00,Wunderground v.1.15,2013-01-08 13:17:00,
2013-01-08 08:18:00,27.3,23.4,30.32,ESE,113,1.0,-999.0,85,0.00,,,0.00,Wunderground v.1.15,2013-01-08 13:18:00,
2013-01-08 08:22:00,27.5,23.6,30.32,South,180,2.0,-999.0,85,0.00,,,0.00,Wunderground v.1.15,2013-01-08 13:22:00,
2013-01-08 08:23:00,27.5,23.6,30.32,SSE,158,1.0,-999.0,85,0.00,,,0.00,Wunderground v.1.15,2013-01-08 13:23:00,
2013-01-08 08:27:00,27.7,23.8,30.32,SSE,158,3.0,-999.0,85,0.00,,,0.00,Wunderground v.1.15,2013-01-08 13:27:00,
2013-01-08 08:28:00,27.7,23.8,30.32,SE,135,4.0,-999.0,85,0.00,,,0.00,Wunderground v.1.15,2013-01-08 13:28:00,
2013-01-08 08:32:00,27.9,23.7,30.32,SSE,158,2.0,-999.0,84,0.00,,,0.00,Wunderground v.1.15,2013-01-08 13:32:00,
2013-01-08 08:33:00,28.0,23.8,30.32,SE,135,1.0,-999.0,84,0.00,,,0.00,Wunderground v.1.15,2013-01-08 13:33:00,
2013-01-08 08:37:00,28.3,24.1,30.31,SSE,158,4.0,-999.0,84,0.00,,,0.00,Wunderground v.1.15,2013-01-08 13:37:00,
2013-01-08 08:38:00,28.3,24.1,30.32,SSE,158,2.0,-999.0,84,0.00,,,0.00,Wunderground v.1.15,2013-01-08 13:38:00,
2013-01-08 08:42:00,28.6,24.1,30.31,SE,135,3.0,-999.0,83,0.00,,,0.00,Wunderground v.1.15,2013-01-08 13:42:00,
2013-01-08 08:43:00,28.7,24.2,30.31,South,180,2.0,-999.0,83,0.00,,,0.00,Wunderground v.1.15,2013-01-08 13:43:00,
2013-01-08 08:47:00,28.9,24.4,30.31,SSE,158,3.0,-999.0,83,0.00,,,0.00,Wunderground v.1.15,2013-01-08 13:47:00,
2013-01-08 08:48:00,29.0,24.2,30.31,SSE,158,2.0,-999.0,82,0.00,,,0.00,Wunderground v.1.15,2013-01-08 13:48:00,
2013-01-08 08:52:00,29.3,24.5,30.32,South,180,1.0,-999.0,82,0.00,,,0.00,Wunderground v.1.15,2013-01-08 13:52:00,
2013-01-08 08:53:00,29.4,24.6,30.31,South,180,1.0,-999.0,82,0.00,,,0.00,Wunderground v.1.15,2013-01-08 13:53:00,
2013-01-08 08:57:00,29.7,24.6,30.31,SSE,158,3.0,-999.0,81,0.00,,,0.00,Wunderground v.1.15,2013-01-08 13:57:00,
2013-01-08 08:58:00,29.7,24.6,30.31,SSE,158,2.0,-999.0,81,0.00,,,0.00,Wunderground v.1.15,2013-01-08 13:58:00,
2013-01-08 09:02:00,30.0,24.9,30.31,South,180,2.0,-999.0,81,0.00,,,0.00,Wunderground v.1.15,2013-01-08 14:02:00,
2013-01-08 09:03:00,30.1,25.0,30.32,South,180,3.0,-999.0,81,0.00,,,0.00,Wunderground v.1.15,2013-01-08 14:03:00,
2013-01-08 09:07:00,30.4,25.3,30.31,SSE,158,1.0,-999.0,81,0.00,,,0.00,Wunderground v.1.15,2013-01-08 14:07:00,
2013-01-08 09:08:00,30.5,25.7,30.31,South,180,1.0,-999.0,82,0.00,,,0.00,Wunderground v.1.15,2013-01-08 14:08:00,
2013-01-08 09:12:00,30.8,25.7,30.31,SSE,158,5.0,-999.0,81,0.00,,,0.00,Wunderground v.1.15,2013-01-08 14:12:00,
2013-01-08 09:13:00,30.9,25.8,30.31,South,180,2.0,-999.0,81,0.00,,,0.00,Wunderground v.1.15,2013-01-08 14:13:00,
2013-01-08 09:17:00,31.3,25.5,30.32,SSE,158,3.0,-999.0,79,0.00,,,0.00,Wunderground v.1.15,2013-01-08 14:17:00,
2013-01-08 09:18:00,31.3,25.5,30.31,SSE,158,2.0,-999.0,79,0.00,,,0.00,Wunderground v.1.15,2013-01-08 14:18:00,
2013-01-08 09:22:00,31.6,25.8,30.32,South,180,2.0,-999.0,79,0.00,,,0.00,Wunderground v.1.15,2013-01-08 14:22:00,
2013-01-08 09:23:00,31.7,25.9,30.32,South,180,0.0,-999.0,79,0.00,,,0.00,Wunderground v.1.15,2013-01-08 14:23:00,
2013-01-08 09:27:00,32.0,25.9,30.32,South,180,3.0,-999.0,78,0.00,,,0.00,Wunderground v.1.15,2013-01-08 14:27:00,
2013-01-08 09:28:00,32.0,25.9,30.32,SSW,203,3.0,-999.0,78,0.00,,,0.00,Wunderground v.1.15,2013-01-08 14:28:00,
2013-01-08 09:32:00,32.3,26.5,30.32,SSE,158,3.0,-999.0,79,0.00,,,0.00,Wunderground v.1.15,2013-01-08 14:32:00,
2013-01-08 09:33:00,32.4,26.6,30.32,SSE,158,2.0,-999.0,79,0.00,,,0.00,Wunderground v.1.15,2013-01-08 14:33:00,
2013-01-08 09:37:00,32.7,26.0,30.32,SSE,158,0.0,-999.0,76,0.00,,,0.00,Wunderground v.1.15,2013-01-08 14:37:00,
2013-01-08 09:38:00,32.8,26.1,30.32,SSE,158,3.0,-999.0,76,0.00,,,0.00,Wunderground v.1.15,2013-01-08 14:38:00,
2013-01-08 09:42:00,33.0,26.3,30.31,South,180,3.0,-999.0,76,0.00,,,0.00,Wunderground v.1.15,2013-01-08 14:42:00,
2013-01-08 09:43:00,33.0,26.3,30.31,SSE,158,3.0,-999.0,76,0.00,,,0.00,Wunderground v.1.15,2013-01-08 14:43:00,
2013-01-08 09:47:00,33.2,26.5,30.32,SE,135,3.0,-999.0,76,0.00,,,0.00,Wunderground v.1.15,2013-01-08 14:47:00,
2013-01-08 09:48:00,33.2,26.5,30.31,SE,135,2.0,-999.0,76,0.00,,,0.00,Wunderground v.1.15,2013-01-08 14:48:00,
2013-01-08 09:52:00,33.3,26.5,30.31,SE,135,2.0,-999.0,76,0.00,,,0.00,Wunderground v.1.15,2013-01-08 14:52:00,
2013-01-08 09:53:00,33.4,26.6,30.31,SE,135,3.0,-999.0,76,0.00,,,0.00,Wunderground v.1.15,2013-01-08 14:53:00,
2013-01-08 09:57:00,33.6,26.5,30.31,SE,135,1.0,-999.0,75,0.00,,,0.00,Wunderground v.1.15,2013-01-08 14:57:00,
2013-01-08 09:58:00,33.6,26.5,30.31,SE,135,7.0,-999.0,75,0.00,,,0.00,Wunderground v.1.15,2013-01-08 14:58:00,
2013-01-08 10:02:00,33.8,26.7,30.31,SSE,158,3.0,-999.0,75,0.00,,,0.00,Wunderground v.1.15,2013-01-08 15:02:00,
2013-01-08 10:03:00,33.8,26.7,30.32,SSE,158,3.0,-999.0,75,0.00,,,0.00,Wunderground v.1.15,2013-01-08 15:03:00,
2013-01-08 10:07:00,34.0,26.6,30.31,SSE,158,3.0,-999.0,74,0.00,,,0.00,Wunderground v.1.15,2013-01-08 15:07:00,
2013-01-08 10:08:00,34.1,27.0,30.31,SE,135,5.0,-999.0,75,0.00,,,0.00,Wunderground v.1.15,2013-01-08 15:08:00,
2013-01-08 10:12:00,34.2,26.8,30.31,SSE,158,6.0,-999.0,74,0.00,,,0.00,Wunderground v.1.15,2013-01-08 15:12:00,
2013-01-08 10:13:00,34.3,26.9,30.31,SSW,203,3.0,-999.0,74,0.00,,,0.00,Wunderground v.1.15,2013-01-08 15:13:00,
2013-01-08 10:17:00,34.4,27.0,30.31,SSE,158,3.0,-999.0,74,0.00,,,0.00,Wunderground v.1.15,2013-01-08 15:17:00,
2013-01-08 10:18:00,34.4,27.0,30.31,SE,135,2.0,-999.0,74,0.00,,,0.00,Wunderground v.1.15,2013-01-08 15:18:00,
2013-01-08 10:22:00,34.7,27.3,30.31,SSW,203,4.0,-999.0,74,0.00,,,0.00,Wunderground v.1.15,2013-01-08 15:22:00,
2013-01-08 10:23:00,34.7,26.9,30.31,South,180,7.0,-999.0,73,0.00,,,0.00,Wunderground v.1.15,2013-01-08 15:23:00,
2013-01-08 10:27:00,35.1,27.0,30.30,SE,135,4.0,-999.0,72,0.00,,,0.00,Wunderground v.1.15,2013-01-08 15:27:00,
2013-01-08 10:28:00,35.3,27.2,30.30,SSW,203,5.0,-999.0,72,0.00,,,0.00,Wunderground v.1.15,2013-01-08 15:28:00,
2013-01-08 10:32:00,35.6,27.8,30.30,SSE,158,5.0,-999.0,73,0.00,,,0.00,Wunderground v.1.15,2013-01-08 15:32:00,
2013-01-08 10:33:00,35.7,27.6,30.30,South,180,6.0,-999.0,72,0.00,,,0.00,Wunderground v.1.15,2013-01-08 15:33:00,
2013-01-08 10:37:00,36.1,26.9,30.31,SSW,203,10.0,-999.0,69,0.00,,,0.00,Wunderground v.1.15,2013-01-08 15:37:00,
2013-01-08 10:38:00,36.1,26.9,30.30,South,180,8.0,-999.0,69,0.00,,,0.00,Wunderground v.1.15,2013-01-08 15:38:00,
2013-01-08 10:42:00,36.2,27.4,30.31,South,180,8.0,-999.0,70,0.00,,,0.00,Wunderground v.1.15,2013-01-08 15:42:00,
2013-01-08 10:43:00,36.3,27.4,30.30,South,180,4.0,-999.0,70,0.00,,,0.00,Wunderground v.1.15,2013-01-08 15:43:00,
2013-01-08 10:47:00,36.5,27.3,30.30,South,180,10.0,-999.0,69,0.00,,,0.00,Wunderground v.1.15,2013-01-08 15:47:00,
2013-01-08 10:48:00,36.5,26.9,30.30,South,180,10.0,-999.0,68,0.00,,,0.00,Wunderground v.1.15,2013-01-08 15:48:00,
2013-01-08 10:52:00,36.7,27.1,30.30,South,180,8.0,-999.0,68,0.00,,,0.00,Wunderground v.1.15,2013-01-08 15:52:00,
2013-01-08 10:53:00,36.7,27.1,30.30,South,180,9.0,-999.0,68,0.00,,,0.00,Wunderground v.1.15,2013-01-08 15:53:00,
2013-01-08 10:57:00,36.9,27.3,30.29,SSE,158,11.0,-999.0,68,0.00,,,0.00,Wunderground v.1.15,2013-01-08 15:57:00,
2013-01-08 10:58:00,37.0,27.4,30.29,SE,135,7.0,-999.0,68,0.00,,,0.00,Wunderground v.1.15,2013-01-08 15:58:00,
2013-01-08 11:02:00,37.1,27.2,30.29,South,180,4.0,-999.0,67,0.00,,,0.00,Wunderground v.1.15,2013-01-08 16:02:00,
2013-01-08 11:03:00,37.2,27.2,30.29,SSE,158,8.0,-999.0,67,0.00,,,0.00,Wunderground v.1.15,2013-01-08 16:03:00,
2013-01-08 11:07:00,37.5,27.5,30.28,SSE,158,7.0,-999.0,67,0.00,,,0.00,Wunderground v.1.15,2013-01-08 16:07:00,
2013-01-08 11:08:00,37.5,27.5,30.28,SSE,158,7.0,-999.0,67,0.00,,,0.00,Wunderground v.1.15,2013-01-08 16:08:00,
2013-01-08 11:12:00,37.9,27.5,30.28,SSE,158,4.0,-999.0,66,0.00,,,0.00,Wunderground v.1.15,2013-01-08 16:12:00,
2013-01-08 11:13:00,38.0,27.6,30.28,South,180,4.0,-999.0,66,0.00,,,0.00,Wunderground v.1.15,2013-01-08 16:13:00,
2013-01-08 11:17:00,38.4,27.7,30.28,SSE,158,8.0,-999.0,65,0.00,,,0.00,Wunderground v.1.15,2013-01-08 16:17:00,
2013-01-08 11:18:00,38.6,27.8,30.28,SSE,158,8.0,-999.0,65,0.00,,,0.00,Wunderground v.1.15,2013-01-08 16:18:00,
2013-01-08 11:22:00,38.9,27.8,30.28,South,180,5.0,-999.0,64,0.00,,,0.00,Wunderground v.1.15,2013-01-08 16:22:00,
2013-01-08 11:23:00,39.1,27.9,30.28,South,180,7.0,-999.0,64,0.00,,,0.00,Wunderground v.1.15,2013-01-08 16:23:00,
2013-01-08 11:27:00,39.4,27.8,30.28,South,180,8.0,-999.0,63,0.00,,,0.00,Wunderground v.1.15,2013-01-08 16:27:00,
2013-01-08 11:28:00,39.5,27.9,30.28,South,180,6.0,-999.0,63,0.00,,,0.00,Wunderground v.1.15,2013-01-08 16:28:00,
2013-01-08 11:32:00,39.9,27.9,30.28,South,180,3.0,-999.0,62,0.00,,,0.00,Wunderground v.1.15,2013-01-08 16:32:00,
2013-01-08 11:33:00,40.0,28.0,30.28,South,180,6.0,-999.0,62,0.00,,,0.00,Wunderground v.1.15,2013-01-08 16:33:00,
2013-01-08 11:37:00,40.3,28.3,30.27,South,180,3.0,-999.0,62,0.00,,,0.00,Wunderground v.1.15,2013-01-08 16:37:00,
2013-01-08 11:38:00,40.4,28.4,30.27,South,180,5.0,-999.0,62,0.00,,,0.00,Wunderground v.1.15,2013-01-08 16:38:00,
2013-01-08 11:42:00,40.7,28.3,30.27,South,180,7.0,-999.0,61,0.00,,,0.00,Wunderground v.1.15,2013-01-08 16:42:00,
2013-01-08 11:43:00,40.7,28.3,30.27,SSE,158,6.0,-999.0,61,0.00,,,0.00,Wunderground v.1.15,2013-01-08 16:43:00,
2013-01-08 11:47:00,40.8,28.8,30.27,South,180,5.0,-999.0,62,0.00,,,0.00,Wunderground v.1.15,2013-01-08 16:47:00,
2013-01-08 11:48:00,40.8,29.6,30.27,SSE,158,5.0,-999.0,64,0.00,,,0.00,Wunderground v.1.15,2013-01-08 16:48:00,
2013-01-08 11:52:00,41.2,29.2,30.27,South,180,6.0,-999.0,62,0.00,,,0.00,Wunderground v.1.15,2013-01-08 16:52:00,
2013-01-08 11:53:00,41.4,29.3,30.27,South,180,2.0,-999.0,62,0.00,,,0.00,Wunderground v.1.15,2013-01-08 16:53:00,
2013-01-08 11:57:00,41.9,29.4,30.26,South,180,3.0,-999.0,61,0.00,,,0.00,Wunderground v.1.15,2013-01-08 16:57:00,
2013-01-08 11:58:00,42.0,29.1,30.26,ESE,113,2.0,-999.0,60,0.00,,,0.00,Wunderground v.1.15,2013-01-08 16:58:00,
2013-01-08 12:02:00,42.5,29.2,30.26,South,180,9.0,-999.0,59,0.00,,,0.00,Wunderground v.1.15,2013-01-08 17:02:00,
2013-01-08 12:03:00,42.6,29.3,30.26,South,180,5.0,-999.0,59,0.00,,,0.00,Wunderground v.1.15,2013-01-08 17:03:00,
2013-01-08 12:07:00,42.9,29.1,30.26,South,180,7.0,-999.0,58,0.00,,,0.00,Wunderground v.1.15,2013-01-08 17:07:00,
2013-01-08 12:08:00,42.9,29.1,30.26,South,180,2.0,-999.0,58,0.00,,,0.00,Wunderground v.1.15,2013-01-08 17:08:00,
2013-01-08 12:12:00,43.0,29.2,30.26,SE,135,5.0,-999.0,58,0.00,,,0.00,Wunderground v.1.15,2013-01-08 17:12:00,
2013-01-08 12:13:00,43.0,29.6,30.26,SSE,158,7.0,-999.0,59,0.00,,,0.00,Wunderground v.1.15,2013-01-08 17:13:00,
2013-01-08 12:17:00,43.0,28.8,30.26,South,180,5.0,-999.0,57,0.00,,,0.00,Wunderground v.1.15,2013-01-08 17:17:00,
2013-01-08 12:18:00,43.1,29.3,30.26,South,180,4.0,-999.0,58,0.00,,,0.00,Wunderground v.1.15,2013-01-08 17:18:00,
2013-01-08 12:22:00,43.0,28.8,30.25,SSE,158,5.0,-999.0,57,0.00,,,0.00,Wunderground v.1.15,2013-01-08 17:22:00,
2013-01-08 12:23:00,43.0,28.8,30.25,South,180,5.0,-999.0,57,0.00,,,0.00,Wunderground v.1.15,2013-01-08 17:23:00,
2013-01-08 12:27:00,43.1,28.9,30.25,South,180,7.0,-999.0,57,0.00,,,0.00,Wunderground v.1.15,2013-01-08 17:27:00,
2013-01-08 12:28:00,43.2,29.0,30.25,SSW,203,6.0,-999.0,57,0.00,,,0.00,Wunderground v.1.15,2013-01-08 17:28:00,
2013-01-08 12:32:00,43.5,28.8,30.25,SSW,203,9.0,-999.0,56,0.00,,,0.00,Wunderground v.1.15,2013-01-08 17:32:00,
2013-01-08 12:33:00,43.5,28.8,30.25,SSW,203,7.0,-999.0,56,0.00,,,0.00,Wunderground v.1.15,2013-01-08 17:33:00,
2013-01-08 12:37:00,43.6,28.9,30.25,South,180,6.0,-999.0,56,0.00,,,0.00,Wunderground v.1.15,2013-01-08 17:37:00,
2013-01-08 12:38:00,43.6,28.9,30.25,South,180,3.0,-999.0,56,0.00,,,0.00,Wunderground v.1.15,2013-01-08 17:38:00,
2013-01-08 12:42:00,43.8,29.1,30.25,SSE,158,6.0,-999.0,56,0.00,,,0.00,Wunderground v.1.15,2013-01-08 17:42:00,
2013-01-08 12:43:00,43.9,29.2,30.25,SSE,158,7.0,-999.0,56,0.00,,,0.00,Wunderground v.1.15,2013-01-08 17:43:00,
2013-01-08 12:47:00,44.0,29.3,30.25,South,180,1.0,-999.0,56,0.00,,,0.00,Wunderground v.1.15,2013-01-08 17:47:00,
2013-01-08 12:48:00,44.0,29.3,30.25,SSE,158,4.0,-999.0,56,0.00,,,0.00,Wunderground v.1.15,2013-01-08 17:48:00,
2013-01-08 12:52:00,44.2,29.0,30.25,SSE,158,3.0,-999.0,55,0.00,,,0.00,Wunderground v.1.15,2013-01-08 17:52:00,
2013-01-08 12:53:00,44.2,29.0,30.25,SSE,158,0.0,-999.0,55,0.00,,,0.00,Wunderground v.1.15,2013-01-08 17:53:00,
2013-01-08 12:57:00,44.3,29.1,30.25,South,180,5.0,-999.0,55,0.00,,,0.00,Wunderground v.1.15,2013-01-08 17:57:00,
2013-01-08 12:58:00,44.4,29.2,30.25,South,180,5.0,-999.0,55,0.00,,,0.00,Wunderground v.1.15,2013-01-08 17:58:00,
2013-01-08 13:02:00,44.4,29.2,30.25,South,180,5.0,-999.0,55,0.00,,,0.00,Wunderground v.1.15,2013-01-08 18:02:00,
2013-01-08 13:03:00,44.4,29.2,30.25,SSE,158,3.0,-999.0,55,0.00,,,0.00,Wunderground v.1.15,2013-01-08 18:03:00,
2013-01-08 13:07:00,44.4,29.2,30.25,South,180,3.0,-999.0,55,0.00,,,0.00,Wunderground v.1.15,2013-01-08 18:07:00,
2013-01-08 13:08:00,44.4,29.7,30.25,South,180,1.0,-999.0,56,0.00,,,0.00,Wunderground v.1.15,2013-01-08 18:08:00,
2013-01-08 13:12:00,44.5,29.3,30.25,South,180,3.0,-999.0,55,0.00,,,0.00,Wunderground v.1.15,2013-01-08 18:12:00,
2013-01-08 13:13:00,44.5,29.3,30.25,SSE,158,2.0,-999.0,55,0.00,,,0.00,Wunderground v.1.15,2013-01-08 18:13:00,
2013-01-08 13:17:00,44.6,29.9,30.25,SSW,203,6.0,-999.0,56,0.00,,,0.00,Wunderground v.1.15,2013-01-08 18:17:00,
2013-01-08 13:18:00,44.7,29.5,30.25,South,180,6.0,-999.0,55,0.00,,,0.00,Wunderground v.1.15,2013-01-08 18:18:00,
2013-01-08 13:22:00,44.8,30.5,30.25,South,180,3.0,-999.0,57,0.00,,,0.00,Wunderground v.1.15,2013-01-08 18:22:00,
2013-01-08 13:23:00,44.8,30.0,30.25,South,180,5.0,-999.0,56,0.00,,,0.00,Wunderground v.1.15,2013-01-08 18:23:00,
2013-01-08 13:27:00,44.8,29.6,30.25,South,180,4.0,-999.0,55,0.00,,,0.00,Wunderground v.1.15,2013-01-08 18:27:00,
2013-01-08 13:28:00,44.9,30.1,30.25,SSW,203,4.0,-999.0,56,0.00,,,0.00,Wunderground v.1.15,2013-01-08 18:28:00,
2013-01-08 13:32:00,44.9,29.2,30.25,South,180,7.0,-999.0,54,0.00,,,0.00,Wunderground v.1.15,2013-01-08 18:32:00,
2013-01-08 13:33:00,44.9,29.2,30.25,SSE,158,3.0,-999.0,54,0.00,,,0.00,Wunderground v.1.15,2013-01-08 18:33:00,
2013-01-08 13:37:00,45.0,30.2,30.25,SSE,158,4.0,-999.0,56,0.00,,,0.00,Wunderground v.1.15,2013-01-08 18:37:00,
2013-01-08 13:38:00,45.0,30.2,30.25,South,180,8.0,-999.0,56,0.00,,,0.00,Wunderground v.1.15,2013-01-08 18:38:00,
2013-01-08 13:42:00,45.3,29.6,30.25,SE,135,2.0,-999.0,54,0.00,,,0.00,Wunderground v.1.15,2013-01-08 18:42:00,
2013-01-08 13:43:00,45.4,29.7,30.25,SSE,158,5.0,-999.0,54,0.00,,,0.00,Wunderground v.1.15,2013-01-08 18:43:00,
2013-01-08 13:47:00,45.6,29.9,30.25,South,180,4.0,-999.0,54,0.00,,,0.00,Wunderground v.1.15,2013-01-08 18:47:00,
2013-01-08 13:48:00,45.6,29.4,30.25,South,180,3.0,-999.0,53,0.00,,,0.00,Wunderground v.1.15,2013-01-08 18:48:00,
2013-01-08 13:52:00,45.8,29.6,30.25,South,180,2.0,-999.0,53,0.00,,,0.00,Wunderground v.1.15,2013-01-08 18:52:00,
2013-01-08 13:53:00,45.8,29.2,30.25,ESE,113,1.0,-999.0,52,0.00,,,0.00,Wunderground v.1.15,2013-01-08 18:53:00,
2013-01-08 13:57:00,46.0,29.8,30.25,SSE,158,4.0,-999.0,53,0.00,,,0.00,Wunderground v.1.15,2013-01-08 18:57:00,
2013-01-08 13:58:00,46.0,29.3,30.25,SSE,158,7.0,-999.0,52,0.00,,,0.00,Wunderground v.1.15,2013-01-08 18:58:00,
2013-01-08 14:02:00,45.9,29.7,30.25,SE,135,2.0,-999.0,53,0.00,,,0.00,Wunderground v.1.15,2013-01-08 19:02:00,
2013-01-08 14:03:00,45.9,29.2,30.25,SE,135,1.0,-999.0,52,0.00,,,0.00,Wunderground v.1.15,2013-01-08 19:03:00,
2013-01-08 14:07:00,45.8,29.2,30.25,SSE,158,4.0,-999.0,52,0.00,,,0.00,Wunderground v.1.15,2013-01-08 19:07:00,
2013-01-08 14:08:00,45.9,29.2,30.24,SSE,158,3.0,-999.0,52,0.00,,,0.00,Wunderground v.1.15,2013-01-08 19:08:00,
2013-01-08 14:12:00,46.0,29.3,30.24,SSE,158,5.0,-999.0,52,0.00,,,0.00,Wunderground v.1.15,2013-01-08 19:12:00,
2013-01-08 14:13:00,46.0,29.3,30.24,SSE,158,4.0,-999.0,52,0.00,,,0.00,Wunderground v.1.15,2013-01-08 19:13:00,
2013-01-08 14:17:00,46.2,29.1,30.24,SSE,158,1.0,-999.0,51,0.00,,,0.00,Wunderground v.1.15,2013-01-08 19:17:00,
2013-01-08 14:18:00,46.3,29.1,30.24,SSE,158,1.0,-999.0,51,0.00,,,0.00,Wunderground v.1.15,2013-01-08 19:18:00,
2013-01-08 14:22:00,46.4,29.2,30.24,SE,135,3.0,-999.0,51,0.00,,,0.00,Wunderground v.1.15,2013-01-08 19:22:00,
2013-01-08 14:23:00,46.5,29.3,30.24,SSE,158,5.0,-999.0,51,0.00,,,0.00,Wunderground v.1.15,2013-01-08 19:23:00,
2013-01-08 14:27:00,46.6,29.4,30.24,SSE,158,7.0,-999.0,51,0.00,,,0.00,Wunderground v.1.15,2013-01-08 19:27:00,
2013-01-08 14:28:00,46.6,29.4,30.24,SSE,158,7.0,-999.0,51,0.00,,,0.00,Wunderground v.1.15,2013-01-08 19:28:00,
2013-01-08 14:32:00,46.7,29.5,30.24,South,180,7.0,-999.0,51,0.00,,,0.00,Wunderground v.1.15,2013-01-08 19:32:00,
2013-01-08 14:33:00,46.7,29.5,30.24,South,180,3.0,-999.0,51,0.00,,,0.00,Wunderground v.1.15,2013-01-08 19:33:00,
2013-01-08 14:37:00,46.8,29.6,30.25,SE,135,2.0,-999.0,51,0.00,,,0.00,Wunderground v.1.15,2013-01-08 19:37:00,
2013-01-08 14:38:00,46.8,30.1,30.25,SE,135,5.0,-999.0,52,0.00,,,0.00,Wunderground v.1.15,2013-01-08 19:38:00,
2013-01-08 14:43:00,46.7,30.0,30.25,South,180,3.0,-999.0,52,0.00,,,0.00,Wunderground v.1.15,2013-01-08 19:43:00,
2013-01-08 14:48:00,46.6,29.9,30.25,SSE,158,2.0,-999.0,52,0.00,,,0.00,Wunderground v.1.15,2013-01-08 19:48:00,
2013-01-08 14:53:00,46.3,29.6,30.24,SSE,158,7.0,-999.0,52,0.00,,,0.00,Wunderground v.1.15,2013-01-08 19:53:00,
2013-01-08 14:58:00,45.9,29.7,30.25,SSE,158,5.0,-999.0,53,0.00,,,0.00,Wunderground v.1.15,2013-01-08 19:58:00,
2013-01-08 15:00:00,46.3,29.6,30.25,SE,129,3.0,10.0,52,0.00,,,0.00,Wunderground v.1.15,2013-01-08 20:00:00,
2013-01-08 15:03:00,45.5,29.8,30.25,SE,135,1.0,-999.0,54,0.00,,,0.00,Wunderground v.1.15,2013-01-08 20:03:00,
2013-01-08 15:05:00,45.8,29.6,30.25,SSE,163,5.0,10.0,53,0.00,,,0.00,Wunderground v.1.15,2013-01-08 20:05:00,
2013-01-08 15:08:00,45.3,29.6,30.25,SSE,158,2.0,-999.0,54,0.00,,,0.00,Wunderground v.1.15,2013-01-08 20:08:00,
2013-01-08 15:10:00,45.5,29.8,30.25,South,169,4.0,4.0,54,0.00,,,0.00,Wunderground v.1.15,2013-01-08 20:10:00,
2013-01-08 15:13:00,45.1,29.9,30.26,East,90,1.0,-999.0,55,0.00,,,0.00,Wunderground v.1.15,2013-01-08 20:13:00,
2013-01-08 15:18:00,44.7,29.5,30.26,East,90,1.0,-999.0,55,0.00,,,0.00,Wunderground v.1.15,2013-01-08 20:18:00,
2013-01-08 15:20:00,45.1,29.9,30.25,East,94,2.0,2.0,55,0.00,,,0.00,Wunderground v.1.15,2013-01-08 20:20:00,
2013-01-08 15:23:00,44.3,29.1,30.26,N/A,-737280,0.0,-999.0,55,0.00,,,0.00,Wunderground v.1.15,2013-01-08 20:23:00,
2013-01-08 15:25:00,44.7,29.5,30.26,East,96,1.0,2.0,55,0.00,,,0.00,Wunderground v.1.15,2013-01-08 20:25:00,
2013-01-08 15:28:00,44.0,29.3,30.26,ESE,113,1.0,-999.0,56,0.00,,,0.00,Wunderground v.1.15,2013-01-08 20:28:00,
2013-01-08 15:30:00,44.3,29.1,30.26,ESE,109,1.0,1.0,55,0.00,,,0.00,Wunderground v.1.15,2013-01-08 20:30:00,
2013-01-08 15:33:00,43.7,29.0,30.26,N/A,-737280,0.0,-999.0,56,0.00,,,0.00,Wunderground v.1.15,2013-01-08 20:33:00,
2013-01-08 15:35:00,44.0,29.3,30.26,ESE,119,1.0,1.0,56,0.00,,,0.00,Wunderground v.1.15,2013-01-08 20:35:00,
2013-01-08 15:38:00,43.5,29.3,30.26,ESE,113,1.0,-999.0,57,0.00,,,0.00,Wunderground v.1.15,2013-01-08 20:38:00,
2013-01-08 15:43:00,43.3,29.5,30.26,ESE,113,0.0,-999.0,58,0.00,,,0.00,Wunderground v.1.15,2013-01-08 20:43:00,
2013-01-08 15:45:00,43.5,29.3,30.26,ESE,117,0.0,10.0,57,0.00,,,0.00,Wunderground v.1.15,2013-01-08 20:45:00,
2013-01-08 15:48:00,43.0,29.6,30.25,ESE,113,0.0,-999.0,59,0.00,,,0.00,Wunderground v.1.15,2013-01-08 20:48:00,
2013-01-08 15:50:00,43.3,29.5,30.25,ESE,117,0.0,10.0,58,0.00,,,0.00,Wunderground v.1.15,2013-01-08 20:50:00,
2013-01-08 15:53:00,42.6,29.3,30.25,N/A,-737280,0.0,-999.0,59,0.00,,,0.00,Wunderground v.1.15,2013-01-08 20:53:00,
2013-01-08 15:55:00,43.0,29.6,30.25,ESE,117,0.0,10.0,59,0.00,,,0.00,Wunderground v.1.15,2013-01-08 20:55:00,
2013-01-08 15:58:00,42.1,29.2,30.25,N/A,-737280,0.0,-999.0,60,0.00,,,0.00,Wunderground v.1.15,2013-01-08 20:58:00,
2013-01-08 16:00:00,42.6,29.3,30.25,ESE,117,0.0,10.0,59,0.00,,,0.00,Wunderground v.1.15,2013-01-08 21:00:00,
2013-01-08 16:03:00,41.3,29.3,30.25,N/A,-737280,0.0,-999.0,62,0.00,,,0.00,Wunderground v.1.15,2013-01-08 21:03:00,
2013-01-08 16:05:00,42.1,29.2,30.25,ESE,117,0.0,10.0,60,0.00,,,0.00,Wunderground v.1.15,2013-01-08 21:05:00,
2013-01-08 16:08:00,40.7,29.1,30.25,N/A,-737280,0.0,-999.0,63,0.00,,,0.00,Wunderground v.1.15,2013-01-08 21:08:00,
2013-01-08 16:13:00,40.1,28.9,30.26,N/A,-737280,0.0,-999.0,64,0.00,,,0.00,Wunderground v.1.15,2013-01-08 21:13:00,
2013-01-08 16:15:00,40.7,29.1,30.25,ESE,117,0.0,10.0,63,0.00,,,0.00,Wunderground v.1.15,2013-01-08 21:15:00,
2013-01-08 16:18:00,39.5,28.7,30.26,N/A,-737280,0.0,-999.0,65,0.00,,,0.00,Wunderground v.1.15,2013-01-08 21:18:00,
2013-01-08 16:20:00,40.1,28.9,30.26,ESE,117,0.0,10.0,64,0.00,,,0.00,Wunderground v.1.15,2013-01-08 21:20:00,
2013-01-08 16:23:00,38.9,28.5,30.26,N/A,-737280,0.0,-999.0,66,0.00,,,0.00,Wunderground v.1.15,2013-01-08 21:23:00,
2013-01-08 16:25:00,39.5,28.7,30.26,ESE,117,0.0,10.0,65,0.00,,,0.00,Wunderground v.1.15,2013-01-08 21:25:00,
2013-01-08 16:28:00,38.3,28.3,30.27,ESE,113,0.0,-999.0,67,0.00,,,0.00,Wunderground v.1.15,2013-01-08 21:28:00,
2013-01-08 16:30:00,38.9,28.5,30.26,ESE,117,0.0,10.0,66,0.00,,,0.00,Wunderground v.1.15,2013-01-08 21:30:00,
2013-01-08 16:33:00,37.7,27.7,30.27,N/A,-737280,0.0,-999.0,67,0.00,,,0.00,Wunderground v.1.15,2013-01-08 21:33:00,
2013-01-08 16:38:00,37.2,27.6,30.27,N/A,-737280,0.0,-999.0,68,0.00,,,0.00,Wunderground v.1.15,2013-01-08 21:38:00,
2013-01-08 16:40:00,37.7,27.7,30.27,ESE,117,0.0,10.0,67,0.00,,,0.00,Wunderground v.1.15,2013-01-08 21:40:00,
2013-01-08 16:43:00,36.8,27.6,30.27,N/A,-737280,0.0,-999.0,69,0.00,,,0.00,Wunderground v.1.15,2013-01-08 21:43:00,
2013-01-08 16:45:00,37.2,27.6,30.27,ESE,117,0.0,10.0,68,0.00,,,0.00,Wunderground v.1.15,2013-01-08 21:45:00,
2013-01-08 16:48:00,36.2,27.4,30.27,N/A,-737280,0.0,-999.0,70,0.00,,,0.00,Wunderground v.1.15,2013-01-08 21:48:00,
2013-01-08 16:50:00,36.7,27.5,30.26,ESE,117,0.0,10.0,69,0.00,,,0.00,Wunderground v.1.15,2013-01-08 21:50:00,
2013-01-08 16:53:00,35.6,27.1,30.27,N/A,-737280,0.0,-999.0,71,0.00,,,0.00,Wunderground v.1.15,2013-01-08 21:53:00,
2013-01-08 16:55:00,36.1,27.3,30.27,ESE,117,0.0,10.0,70,0.00,,,0.00,Wunderground v.1.15,2013-01-08 21:55:00,
2013-01-08 16:58:00,35.1,27.0,30.27,N/A,-737280,0.0,-999.0,72,0.00,,,0.00,Wunderground v.1.15,2013-01-08 21:58:00,
2013-01-08 17:00:00,35.6,27.5,30.27,ESE,117,0.0,10.0,72,0.00,,,0.00,Wunderground v.1.15,2013-01-08 22:00:00,
2013-01-08 17:03:00,34.4,27.0,30.27,N/A,-737280,0.0,-999.0,74,0.00,,,0.00,Wunderground v.1.15,2013-01-08 22:03:00,
2013-01-08 17:08:00,34.2,27.1,30.27,N/A,-737280,0.0,-999.0,75,0.00,,,0.00,Wunderground v.1.15,2013-01-08 22:08:00,
2013-01-08 17:10:00,34.4,27.0,30.27,ESE,117,0.0,10.0,74,0.00,,,0.00,Wunderground v.1.15,2013-01-08 22:10:00,
2013-01-08 17:15:00,34.2,27.1,30.27,ESE,117,0.0,10.0,75,0.00,,,0.00,Wunderground v.1.15,2013-01-08 22:15:00,
2013-01-08 17:18:00,33.6,26.8,30.27,N/A,-737280,0.0,-999.0,76,0.00,,,0.00,Wunderground v.1.15,2013-01-08 22:18:00,
2013-01-08 17:20:00,33.8,27.0,30.27,ESE,117,0.0,10.0,76,0.00,,,0.00,Wunderground v.1.15,2013-01-08 22:20:00,
2013-01-08 17:23:00,33.4,27.0,30.27,N/A,-737280,0.0,-999.0,77,0.00,,,0.00,Wunderground v.1.15,2013-01-08 22:23:00,
2013-01-08 17:25:00,33.5,26.7,30.27,ESE,117,0.0,10.0,76,0.00,,,0.00,Wunderground v.1.15,2013-01-08 22:25:00,
2013-01-08 17:30:00,33.4,27.0,30.27,ESE,117,0.0,10.0,77,0.00,,,0.00,Wunderground v.1.15,2013-01-08 22:30:00,
2013-01-08 17:33:00,32.9,26.8,30.27,N/A,-737280,0.0,-999.0,78,0.00,,,0.00,Wunderground v.1.15,2013-01-08 22:33:00,
2013-01-08 17:40:00,32.9,26.8,30.27,ESE,117,0.0,0.0,78,0.00,,,0.00,Wunderground v.1.15,2013-01-08 22:40:00,
2013-01-08 17:43:00,32.0,25.9,30.27,N/A,-737280,0.0,-999.0,78,0.00,,,0.00,Wunderground v.1.15,2013-01-08 22:43:00,
2013-01-08 17:50:00,32.0,25.9,30.27,ESE,117,0.0,0.0,78,0.00,,,0.00,Wunderground v.1.15,2013-01-08 22:50:00,
2013-01-08 17:53:00,31.5,25.7,30.28,N/A,-737280,0.0,-999.0,79,0.00,,,0.00,Wunderground v.1.15,2013-01-08 22:53:00,
2013-01-08 17:55:00,31.6,25.8,30.27,ESE,117,0.0,0.0,79,0.00,,,0.00,Wunderground v.1.15,2013-01-08 22:55:00,
2013-01-08 17:58:00,31.5,25.7,30.28,N/A,-737280,0.0,-999.0,79,0.00,,,0.00,Wunderground v.1.15,2013-01-08 22:58:00,
2013-01-08 18:00:00,31.5,25.7,30.28,ESE,117,0.0,0.0,79,0.00,,,0.00,Wunderground v.1.15,2013-01-08 23:00:00,
2013-01-08 18:03:00,31.2,25.7,30.29,ESE,113,0.0,-999.0,80,0.00,,,0.00,Wunderground v.1.15,2013-01-08 23:03:00,
2013-01-08 18:05:00,31.4,25.6,30.28,ESE,117,0.0,0.0,79,0.00,,,0.00,Wunderground v.1.15,2013-01-08 23:05:00,
2013-01-08 18:08:00,31.0,25.6,30.28,N/A,-737280,0.0,-999.0,80,0.00,,,0.00,Wunderground v.1.15,2013-01-08 23:08:00,
2013-01-08 18:13:00,30.8,26.0,30.28,N/A,-737280,0.0,-999.0,82,0.00,,,0.00,Wunderground v.1.15,2013-01-08 23:13:00,
2013-01-08 18:15:00,31.0,25.6,30.28,ESE,117,0.0,0.0,80,0.00,,,0.00,Wunderground v.1.15,2013-01-08 23:15:00,
2013-01-08 18:18:00,30.6,26.1,30.28,N/A,-737280,0.0,-999.0,83,0.00,,,0.00,Wunderground v.1.15,2013-01-08 23:18:00,
2013-01-08 18:20:00,30.8,26.0,30.28,ESE,117,0.0,0.0,82,0.00,,,0.00,Wunderground v.1.15,2013-01-08 23:20:00,
2013-01-08 18:23:00,30.5,26.0,30.28,N/A,-737280,0.0,-999.0,83,0.00,,,0.00,Wunderground v.1.15,2013-01-08 23:23:00,
2013-01-08 18:25:00,30.6,26.1,30.28,ESE,117,0.0,0.0,83,0.00,,,0.00,Wunderground v.1.15,2013-01-08 23:25:00,
2013-01-08 18:28:00,30.3,26.0,30.28,ESE,113,2.0,-999.0,84,0.00,,,0.00,Wunderground v.1.15,2013-01-08 23:28:00,
2013-01-08 18:30:00,30.5,26.0,30.28,ESE,117,0.0,1.0,83,0.00,,,0.00,Wunderground v.1.15,2013-01-08 23:30:00,
2013-01-08 18:33:00,30.3,26.0,30.28,ESE,113,0.0,-999.0,84,0.00,,,0.00,Wunderground v.1.15,2013-01-08 23:33:00,
2013-01-08 18:38:00,30.3,26.0,30.28,SE,135,1.0,-999.0,84,0.00,,,0.00,Wunderground v.1.15,2013-01-08 23:38:00,
2013-01-08 18:40:00,30.3,26.0,30.28,ESE,117,0.0,1.0,84,0.00,,,0.00,Wunderground v.1.15,2013-01-08 23:40:00,
2013-01-08 18:43:00,30.3,26.3,30.28,N/A,-737280,0.0,-999.0,85,0.00,,,0.00,Wunderground v.1.15,2013-01-08 23:43:00,
2013-01-08 18:45:00,30.3,26.0,30.28,SE,144,0.0,1.0,84,0.00,,,0.00,Wunderground v.1.15,2013-01-08 23:45:00,
2013-01-08 18:48:00,30.3,26.3,30.28,SE,135,1.0,-999.0,85,0.00,,,0.00,Wunderground v.1.15,2013-01-08 23:48:00,
2013-01-08 18:50:00,30.3,26.3,30.28,SE,144,0.0,1.0,85,0.00,,,0.00,Wunderground v.1.15,2013-01-08 23:50:00,
2013-01-08 18:53:00,30.4,26.4,30.28,SE,135,0.0,-999.0,85,0.00,,,0.00,Wunderground v.1.15,2013-01-08 23:53:00,
2013-01-08 18:55:00,30.3,26.3,30.28,SE,144,0.0,1.0,85,0.00,,,0.00,Wunderground v.1.15,2013-01-08 23:55:00,
2013-01-08 18:58:00,30.5,26.5,30.29,N/A,-737280,0.0,-999.0,85,0.00,,,0.00,Wunderground v.1.15,2013-01-08 23:58:00,
2013-01-08 19:05:00,30.5,26.5,30.29,SE,144,1.0,1.0,85,0.00,,,0.00,Wunderground v.1.15,2013-01-09 00:05:00,
2013-01-08 19:08:00,30.6,26.6,30.29,N/A,-737280,0.0,-999.0,85,0.00,,,0.00,Wunderground v.1.15,2013-01-09 00:08:00,
2013-01-08 19:10:00,30.6,26.6,30.29,SE,144,1.0,1.0,85,0.00,,,0.00,Wunderground v.1.15,2013-01-09 00:10:00,
2013-01-08 19:13:00,30.6,26.3,30.30,N/A,-737280,0.0,-999.0,84,0.00,,,0.00,Wunderground v.1.15,2013-01-09 00:13:00,
2013-01-08 19:15:00,30.6,26.6,30.30,SE,144,0.0,1.0,85,0.00,,,0.00,Wunderground v.1.15,2013-01-09 00:15:00,
2013-01-08 19:18:00,30.5,26.2,30.30,SE,135,0.0,-999.0,84,0.00,,,0.00,Wunderground v.1.15,2013-01-09 00:18:00,
2013-01-08 19:20:00,30.6,26.3,30.30,SE,144,0.0,1.0,84,0.00,,,0.00,Wunderground v.1.15,2013-01-09 00:20:00,
2013-01-08 19:23:00,30.3,26.0,30.30,N/A,-737280,0.0,-999.0,84,0.00,,,0.00,Wunderground v.1.15,2013-01-09 00:23:00,
2013-01-08 19:28:00,30.2,26.2,30.30,N/A,-737280,0.0,-999.0,85,0.00,,,0.00,Wunderground v.1.15,2013-01-09 00:28:00,
2013-01-08 19:30:00,30.3,26.0,30.30,SE,144,0.0,1.0,84,0.00,,,0.00,Wunderground v.1.15,2013-01-09 00:30:00,
2013-01-08 19:33:00,30.1,26.1,30.30,SE,135,0.0,-999.0,85,0.00,,,0.00,Wunderground v.1.15,2013-01-09 00:33:00,
2013-01-08 19:35:00,30.1,26.1,30.30,SE,144,0.0,1.0,85,0.00,,,0.00,Wunderground v.1.15,2013-01-09 00:35:00,
2013-01-08 19:40:00,30.1,26.1,30.30,SE,144,0.0,1.0,85,0.00,,,0.00,Wunderground v.1.15,2013-01-09 00:40:00,
2013-01-08 19:43:00,29.7,25.7,30.31,N/A,-737280,0.0,-999.0,85,0.00,,,0.00,Wunderground v.1.15,2013-01-09 00:43:00,
2013-01-08 19:45:00,29.9,25.9,30.31,SE,144,0.0,1.0,85,0.00,,,0.00,Wunderground v.1.15,2013-01-09 00:45:00,
2013-01-08 19:48:00,29.4,25.7,30.31,N/A,-737280,0.0,-999.0,86,0.00,,,0.00,Wunderground v.1.15,2013-01-09 00:48:00,
2013-01-08 19:53:00,29.2,25.5,30.31,N/A,-737280,0.0,-999.0,86,0.00,,,0.00,Wunderground v.1.15,2013-01-09 00:53:00,
2013-01-08 19:55:00,29.4,25.7,30.31,SE,144,0.0,1.0,86,0.00,,,0.00,Wunderground v.1.15,2013-01-09 00:55:00,
2013-01-08 19:58:00,29.0,25.3,30.31,N/A,-737280,0.0,-999.0,86,0.00,,,0.00,Wunderground v.1.15,2013-01-09 00:58:00,
2013-01-08 20:00:00,29.2,25.5,30.30,SE,144,0.0,1.0,86,0.00,,,0.00,Wunderground v.1.15,2013-01-09 01:00:00,
2013-01-08 20:03:00,28.9,25.5,30.31,SE,135,0.0,-999.0,87,0.00,,,0.00,Wunderground v.1.15,2013-01-09 01:03:00,
2013-01-08 20:05:00,29.0,25.3,30.31,SE,144,0.0,1.0,86,0.00,,,0.00,Wunderground v.1.15,2013-01-09 01:05:00,
2013-01-08 20:08:00,28.8,25.4,30.31,N/A,-737280,0.0,-999.0,87,0.00,,,0.00,Wunderground v.1.15,2013-01-09 01:08:00,
2013-01-08 20:10:00,28.9,25.5,30.31,SE,144,0.0,1.0,87,0.00,,,0.00,Wunderground v.1.15,2013-01-09 01:10:00,
2013-01-08 20:13:00,28.7,25.3,30.31,N/A,-737280,0.0,-999.0,87,0.00,,,0.00,Wunderground v.1.15,2013-01-09 01:13:00,
2013-01-08 20:15:00,28.8,25.4,30.31,SE,144,0.0,1.0,87,0.00,,,0.00,Wunderground v.1.15,2013-01-09 01:15:00,
2013-01-08 20:18:00,28.7,25.3,30.31,N/A,-737280,0.0,-999.0,87,0.00,,,0.00,Wunderground v.1.15,2013-01-09 01:18:00,
2013-01-08 20:23:00,28.5,25.1,30.31,N/A,-737280,0.0,-999.0,87,0.00,,,0.00,Wunderground v.1.15,2013-01-09 01:23:00,
2013-01-08 20:25:00,28.7,25.3,30.31,SE,144,0.0,1.0,87,0.00,,,0.00,Wunderground v.1.15,2013-01-09 01:25:00,
2013-01-08 20:28:00,28.4,25.3,30.30,N/A,-737280,0.0,-999.0,88,0.00,,,0.00,Wunderground v.1.15,2013-01-09 01:28:00,
2013-01-08 20:30:00,28.5,25.1,30.30,SE,144,0.0,1.0,87,0.00,,,0.00,Wunderground v.1.15,2013-01-09 01:30:00,
2013-01-08 20:33:00,28.4,25.3,30.30,N/A,-737280,0.0,-999.0,88,0.00,,,0.00,Wunderground v.1.15,2013-01-09 01:33:00,
2013-01-08 20:35:00,28.4,25.3,30.30,SE,144,0.0,1.0,88,0.00,,,0.00,Wunderground v.1.15,2013-01-09 01:35:00,
2013-01-08 20:38:00,28.5,25.4,30.31,N/A,-737280,0.0,-999.0,88,0.00,,,0.00,Wunderground v.1.15,2013-01-09 01:38:00,
2013-01-08 20:40:00,28.4,25.3,30.30,SE,144,0.0,1.0,88,0.00,,,0.00,Wunderground v.1.15,2013-01-09 01:40:00,
2013-01-08 20:43:00,28.4,25.3,30.30,N/A,-737280,0.0,-999.0,88,0.00,,,0.00,Wunderground v.1.15,2013-01-09 01:43:00,
2013-01-08 20:45:00,28.4,25.3,30.31,SE,144,0.0,1.0,88,0.00,,,0.00,Wunderground v.1.15,2013-01-09 01:45:00,
2013-01-08 20:48:00,28.2,25.1,30.30,N/A,-737280,0.0,-999.0,88,0.00,,,0.00,Wunderground v.1.15,2013-01-09 01:48:00,
2013-01-08 20:53:00,28.1,25.0,30.30,N/A,-737280,0.0,-999.0,88,0.00,,,0.00,Wunderground v.1.15,2013-01-09 01:53:00,
2013-01-08 20:55:00,28.2,25.1,30.30,SE,144,0.0,1.0,88,0.00,,,0.00,Wunderground v.1.15,2013-01-09 01:55:00,
2013-01-08 20:58:00,27.9,24.8,30.30,SE,135,0.0,-999.0,88,0.00,,,0.00,Wunderground v.1.15,2013-01-09 01:58:00,
2013-01-08 21:00:00,28.1,25.0,30.30,SE,144,0.0,1.0,88,0.00,,,0.00,Wunderground v.1.15,2013-01-09 02:00:00,
2013-01-08 21:03:00,27.8,24.7,30.30,N/A,-737280,0.0,-999.0,88,0.00,,,0.00,Wunderground v.1.15,2013-01-09 02:03:00,
2013-01-08 21:05:00,27.9,24.8,30.30,SE,144,0.0,1.0,88,0.00,,,0.00,Wunderground v.1.15,2013-01-09 02:05:00,
2013-01-08 21:08:00,27.7,24.9,30.30,N/A,-737280,0.0,-999.0,89,0.00,,,0.00,Wunderground v.1.15,2013-01-09 02:08:00,
2013-01-08 21:10:00,27.8,24.7,30.30,SE,144,0.0,1.0,88,0.00,,,0.00,Wunderground v.1.15,2013-01-09 02:10:00,
2013-01-08 21:13:00,27.6,24.8,30.31,N/A,-737280,0.0,-999.0,89,0.00,,,0.00,Wunderground v.1.15,2013-01-09 02:13:00,
2013-01-08 21:15:00,27.7,24.9,30.31,SE,144,0.0,1.0,89,0.00,,,0.00,Wunderground v.1.15,2013-01-09 02:15:00,
2013-01-08 21:23:00,27.3,24.5,30.31,N/A,-737280,0.0,-999.0,89,0.00,,,0.00,Wunderground v.1.15,2013-01-09 02:23:00,
2013-01-08 21:25:00,27.4,24.6,30.31,SE,144,0.0,1.0,89,0.00,,,0.00,Wunderground v.1.15,2013-01-09 02:25:00,
2013-01-08 21:28:00,27.2,24.4,30.31,N/A,-737280,0.0,-999.0,89,0.00,,,0.00,Wunderground v.1.15,2013-01-09 02:28:00,
2013-01-08 21:30:00,27.3,24.5,30.31,SE,144,0.0,1.0,89,0.00,,,0.00,Wunderground v.1.15,2013-01-09 02:30:00,
2013-01-08 21:35:00,27.1,24.3,30.31,SE,144,0.0,1.0,89,0.00,,,0.00,Wunderground v.1.15,2013-01-09 02:35:00,
2013-01-08 21:38:00,26.8,24.0,30.32,N/A,-737280,0.0,-999.0,89,0.00,,,0.00,Wunderground v.1.15,2013-01-09 02:38:00,
2013-01-08 21:43:00,26.6,23.8,30.32,N/A,-737280,0.0,-999.0,89,0.00,,,0.00,Wunderground v.1.15,2013-01-09 02:43:00,
2013-01-08 21:45:00,26.8,24.0,30.32,SE,144,0.0,1.0,89,0.00,,,0.00,Wunderground v.1.15,2013-01-09 02:45:00,
2013-01-08 21:48:00,26.5,24.0,30.32,N/A,-737280,0.0,-999.0,90,0.00,,,0.00,Wunderground v.1.15,2013-01-09 02:48:00,
2013-01-08 21:50:00,26.6,23.8,30.32,SE,144,0.0,1.0,89,0.00,,,0.00,Wunderground v.1.15,2013-01-09 02:50:00,
2013-01-08 21:53:00,26.3,23.8,30.32,SE,135,0.0,-999.0,90,0.00,,,0.00,Wunderground v.1.15,2013-01-09 02:53:00,
2013-01-08 21:55:00,26.5,24.0,30.32,SE,144,0.0,1.0,90,0.00,,,0.00,Wunderground v.1.15,2013-01-09 02:55:00,
2013-01-08 21:58:00,26.0,23.5,30.32,N/A,-737280,0.0,-999.0,90,0.00,,,0.00,Wunderground v.1.15,2013-01-09 02:58:00,
2013-01-08 22:00:00,26.3,23.8,30.32,SE,144,0.0,1.0,90,0.00,,,0.00,Wunderground v.1.15,2013-01-09 03:00:00,
2013-01-08 22:03:00,25.9,23.4,30.32,N/A,-737280,0.0,-999.0,90,0.00,,,0.00,Wunderground v.1.15,2013-01-09 03:03:00,
2013-01-08 22:05:00,26.1,23.6,30.32,SE,144,0.0,1.0,90,0.00,,,0.00,Wunderground v.1.15,2013-01-09 03:05:00,
2013-01-08 22:13:00,25.8,23.5,30.33,N/A,-737280,0.0,-999.0,91,0.00,,,0.00,Wunderground v.1.15,2013-01-09 03:13:00,
2013-01-08 22:15:00,25.9,23.6,30.33,SE,144,0.0,1.0,91,0.00,,,0.00,Wunderground v.1.15,2013-01-09 03:15:00,
2013-01-08 22:18:00,25.8,23.5,30.33,N/A,-737280,0.0,-999.0,91,0.00,,,0.00,Wunderground v.1.15,2013-01-09 03:18:00,
2013-01-08 22:20:00,25.8,23.5,30.33,SE,144,0.0,1.0,91,0.00,,,0.00,Wunderground v.1.15,2013-01-09 03:20:00,
2013-01-08 22:23:00,25.7,23.4,30.34,N/A,-737280,0.0,-999.0,91,0.00,,,0.00,Wunderground v.1.15,2013-01-09 03:23:00,
2013-01-08 22:25:00,25.8,23.5,30.33,SE,144,0.0,1.0,91,0.00,,,0.00,Wunderground v.1.15,2013-01-09 03:25:00,
2013-01-08 22:28:00,25.6,23.3,30.34,N/A,-737280,0.0,-999.0,91,0.00,,,0.00,Wunderground v.1.15,2013-01-09 03:28:00,
2013-01-08 22:30:00,25.7,23.4,30.33,SE,144,0.0,1.0,91,0.00,,,0.00,Wunderground v.1.15,2013-01-09 03:30:00,
2013-01-08 22:33:00,25.4,23.1,30.34,N/A,-737280,0.0,-999.0,91,0.00,,,0.00,Wunderground v.1.15,2013-01-09 03:33:00,
2013-01-08 22:35:00,25.6,23.3,30.34,SE,144,0.0,1.0,91,0.00,,,0.00,Wunderground v.1.15,2013-01-09 03:35:00,
2013-01-08 22:38:00,25.1,22.8,30.34,N/A,-737280,0.0,-999.0,91,0.00,,,0.00,Wunderground v.1.15,2013-01-09 03:38:00,
2013-01-08 22:43:00,25.0,22.7,30.34,N/A,-737280,0.0,-999.0,91,0.00,,,0.00,Wunderground v.1.15,2013-01-09 03:43:00,
2013-01-08 22:45:00,25.1,22.8,30.34,SE,144,0.0,1.0,91,0.00,,,0.00,Wunderground v.1.15,2013-01-09 03:45:00,
2013-01-08 22:48:00,24.9,22.6,30.33,N/A,-737280,0.0,-999.0,91,0.00,,,0.00,Wunderground v.1.15,2013-01-09 03:48:00,
2013-01-08 22:50:00,25.0,22.7,30.34,SE,144,0.0,1.0,91,0.00,,,0.00,Wunderground v.1.15,2013-01-09 03:50:00,
2013-01-08 22:53:00,24.9,22.6,30.33,N/A,-737280,0.0,-999.0,91,0.00,,,0.00,Wunderground v.1.15,2013-01-09 03:53:00,
2013-01-08 22:55:00,24.9,22.6,30.33,SE,144,0.0,1.0,91,0.00,,,0.00,Wunderground v.1.15,2013-01-09 03:55:00,
2013-01-08 22:58:00,24.8,22.5,30.33,N/A,-737280,0.0,-999.0,91,0.00,,,0.00,Wunderground v.1.15,2013-01-09 03:58:00,
2013-01-08 23:00:00,24.9,22.6,30.34,SE,144,0.0,1.0,91,0.00,,,0.00,Wunderground v.1.15,2013-01-09 04:00:00,
2013-01-08 23:03:00,24.8,22.5,30.34,N/A,-737280,0.0,-999.0,91,0.00,,,0.00,Wunderground v.1.15,2013-01-09 04:03:00,
2013-01-08 23:05:00,24.8,22.5,30.34,SE,144,0.0,1.0,91,0.00,,,0.00,Wunderground v.1.15,2013-01-09 04:05:00,
2013-01-08 23:08:00,24.7,22.4,30.33,N/A,-737280,0.0,-999.0,91,0.00,,,0.00,Wunderground v.1.15,2013-01-09 04:08:00,
2013-01-08 23:13:00,24.6,22.3,30.33,N/A,-737280,0.0,-999.0,91,0.00,,,0.00,Wunderground v.1.15,2013-01-09 04:13:00,
2013-01-08 23:15:00,24.7,22.4,30.33,SE,144,0.0,1.0,91,0.00,,,0.00,Wunderground v.1.15,2013-01-09 04:15:00,
2013-01-08 23:18:00,24.5,22.2,30.33,N/A,-737280,0.0,-999.0,91,0.00,,,0.00,Wunderground v.1.15,2013-01-09 04:18:00,
2013-01-08 23:20:00,24.6,22.3,30.33,SE,144,0.0,1.0,91,0.00,,,0.00,Wunderground v.1.15,2013-01-09 04:20:00,
2013-01-08 23:23:00,24.5,22.5,30.33,SE,135,0.0,-999.0,92,0.00,,,0.00,Wunderground v.1.15,2013-01-09 04:23:00,
2013-01-08 23:25:00,24.5,22.2,30.33,SE,144,0.0,1.0,91,0.00,,,0.00,Wunderground v.1.15,2013-01-09 04:25:00,
2013-01-08 23:28:00,24.4,22.4,30.34,SE,135,0.0,-999.0,92,0.00,,,0.00,Wunderground v.1.15,2013-01-09 04:28:00,
2013-01-08 23:30:00,24.5,22.5,30.33,SE,144,0.0,1.0,92,0.00,,,0.00,Wunderground v.1.15,2013-01-09 04:30:00,
2013-01-08 23:33:00,24.3,22.3,30.33,N/A,-737280,0.0,-999.0,92,0.00,,,0.00,Wunderground v.1.15,2013-01-09 04:33:00,
2013-01-08 23:35:00,24.4,22.4,30.33,SE,144,0.0,1.0,92,0.00,,,0.00,Wunderground v.1.15,2013-01-09 04:35:00,
2013-01-08 23:38:00,24.4,22.4,30.33,N/A,-737280,0.0,-999.0,92,0.00,,,0.00,Wunderground v.1.15,2013-01-09 04:38:00,
2013-01-08 23:43:00,24.5,22.5,30.33,N/A,-737280,0.0,-999.0,92,0.00,,,0.00,Wunderground v.1.15,2013-01-09 04:43:00,
2013-01-08 23:45:00,24.4,22.4,30.33,SE,144,0.0,1.0,92,0.00,,,0.00,Wunderground v.1.15,2013-01-09 04:45:00,
2013-01-08 23:48:00,24.5,22.5,30.32,N/A,-737280,0.0,-999.0,92,0.00,,,0.00,Wunderground v.1.15,2013-01-09 04:48:00,
2013-01-08 23:50:00,24.5,22.5,30.33,SE,144,0.0,1.0,92,0.00,,,0.00,Wunderground v.1.15,2013-01-09 04:50:00,
2013-01-08 23:53:00,24.5,22.5,30.33,N/A,-737280,0.0,-999.0,92,0.00,,,0.00,Wunderground v.1.15,2013-01-09 04:53:00,
2013-01-08 23:55:00,24.5,22.5,30.33,SE,144,0.0,1.0,92,0.00,,,0.00,Wunderground v.1.15,2013-01-09 04:55:00,
2013-01-08 23:58:00,24.4,22.4,30.33,N/A,-737280,0.0,-999.0,92,0.00,,,0.00,Wunderground v.1.15,2013-01-09 04:58:00,